Time,TemperatureF,DewpointF,PressureIn,WindDirection,WindDirectionDegrees,WindSpeedMPH,WindSpeedGustMPH,Humidity,HourlyPrecipIn,Conditions,Clouds,dailyrainin,SoftwareType,DateUTC
2013-09-23 00:00:00,78.7,75.2,29.80,ESE,115,0.0,0.0,89,0.00,,FEW020,0.00,VWS V14.01,2013-09-23 04:00:00,
2013-09-23 00:01:00,78.6,75.4,29.80,ESE,116,0.0,0.0,90,0.00,,FEW020,0.00,VWS V14.01,2013-09-23 04:01:00,
2013-09-23 00:02:00,78.6,75.4,29.80,ESE,115,0.0,0.0,90,0.00,,FEW020,0.00,VWS V14.01,2013-09-23 04:02:00,
2013-09-23 00:06:00,78.5,75.3,29.80,ESE,115,0.0,0.0,90,0.00,,FEW020,0.00,VWS V14.01,2013-09-23 04:06:00,
2013-09-23 00:07:00,78.5,75.3,29.80,ESE,115,0.0,0.0,90,0.00,,FEW020,0.00,VWS V14.01,2013-09-23 04:07:00,
2013-09-23 00:11:00,78.5,75.3,29.80,East,92,1.0,1.0,90,0.00,,FEW020,0.00,VWS V14.01,2013-09-23 04:11:00,
2013-09-23 00:12:00,78.5,75.3,29.80,East,92,0.0,1.0,90,0.00,,FEW020,0.00,VWS V14.01,2013-09-23 04:12:00,
2013-09-23 00:16:00,78.6,75.4,29.80,ESE,108,1.0,2.0,90,0.00,,FEW020,0.00,VWS V14.01,2013-09-23 04:16:00,
2013-09-23 00:17:00,78.6,75.4,29.80,ESE,108,1.0,2.0,90,0.00,,FEW020,0.00,VWS V14.01,2013-09-23 04:17:00,
2013-09-23 00:18:00,78.6,75.4,29.80,ESE,108,1.0,2.0,90,0.00,,FEW020,0.00,VWS V14.01,2013-09-23 04:18:00,
2013-09-23 00:21:00,78.6,75.4,29.80,ESE,123,1.0,1.0,90,0.00,,FEW020,0.00,VWS V14.01,2013-09-23 04:21:00,
2013-09-23 00:22:00,78.7,75.5,29.80,ESE,108,2.0,2.0,90,0.00,,FEW020,0.00,VWS V14.01,2013-09-23 04:22:00,
2013-09-23 00:23:00,78.6,75.4,29.80,ESE,116,1.0,2.0,90,0.00,,FEW020,0.00,VWS V14.01,2013-09-23 04:23:00,
2013-09-23 00:26:00,78.7,75.5,29.80,ESE,114,1.0,2.0,90,0.00,,FEW020,0.00,VWS V14.01,2013-09-23 04:26:00,
2013-09-23 00:27:00,78.7,75.5,29.80,East,89,1.0,2.0,90,0.00,,FEW020,0.00,VWS V14.01,2013-09-23 04:27:00,
2013-09-23 00:28:00,78.7,75.2,29.80,ESE,105,1.0,2.0,89,0.00,,FEW020,0.00,VWS V14.01,2013-09-23 04:28:00,
2013-09-23 00:31:00,78.8,75.3,29.80,ESE,105,0.0,1.0,89,0.00,,FEW020,0.00,VWS V14.01,2013-09-23 04:31:00,
2013-09-23 00:32:00,78.8,75.3,29.80,ESE,104,0.0,1.0,89,0.00,,FEW020,0.00,VWS V14.01,2013-09-23 04:32:00,
2013-09-23 00:33:00,78.8,75.3,29.80,ESE,104,0.0,1.0,89,0.00,,FEW020,0.00,VWS V14.01,2013-09-23 04:33:00,
2013-09-23 00:36:00,78.8,75.3,29.80,East,101,0.0,0.0,89,0.00,,CLR,0.00,VWS V14.01,2013-09-23 04:36:00,
2013-09-23 00:37:00,78.8,75.3,29.80,ESE,103,0.0,0.0,89,0.00,,CLR,0.00,VWS V14.01,2013-09-23 04:37:00,
2013-09-23 00:38:00,78.8,75.3,29.80,ESE,103,0.0,0.0,89,0.00,,CLR,0.00,VWS V14.01,2013-09-23 04:38:00,
2013-09-23 00:39:00,78.8,75.3,29.80,ESE,103,0.0,0.0,89,0.00,,CLR,0.00,VWS V14.01,2013-09-23 04:39:00,
2013-09-23 00:41:00,78.7,75.2,29.80,ESE,108,0.0,0.0,89,0.00,,CLR,0.00,VWS V14.01,2013-09-23 04:41:00,
2013-09-23 00:42:00,78.6,75.1,29.80,ESE,109,0.0,0.0,89,0.00,,CLR,0.00,VWS V14.01,2013-09-23 04:42:00,
2013-09-23 00:43:00,78.6,75.1,29.80,ESE,108,0.0,0.0,89,0.00,,CLR,0.00,VWS V14.01,2013-09-23 04:43:00,
2013-09-23 00:44:00,78.6,75.4,29.80,ESE,110,0.0,0.0,90,0.00,,CLR,0.00,VWS V14.01,2013-09-23 04:44:00,
2013-09-23 00:46:00,78.5,75.3,29.80,ESE,112,2.0,3.0,90,0.00,,CLR,0.00,VWS V14.01,2013-09-23 04:46:00,
2013-09-23 00:47:00,78.5,75.3,29.80,ESE,105,1.0,3.0,90,0.00,,CLR,0.00,VWS V14.01,2013-09-23 04:47:00,
2013-09-23 00:48:00,78.5,75.3,29.80,ESE,112,2.0,3.0,90,0.00,,CLR,0.00,VWS V14.01,2013-09-23 04:48:00,
2013-09-23 00:49:00,78.5,75.3,29.80,ESE,121,2.0,3.0,90,0.00,,CLR,0.00,VWS V14.01,2013-09-23 04:49:00,
2013-09-23 00:51:00,78.5,75.3,29.80,ESE,121,2.0,3.0,90,0.00,,CLR,0.00,VWS V14.01,2013-09-23 04:51:00,
2013-09-23 00:53:00,78.5,75.3,29.80,ESE,111,2.0,3.0,90,0.00,,CLR,0.00,VWS V14.01,2013-09-23 04:53:00,
2013-09-23 00:54:00,78.5,75.3,29.80,ESE,119,2.0,4.0,90,0.00,,CLR,0.00,VWS V14.01,2013-09-23 04:54:00,
2013-09-23 00:56:00,78.6,75.4,29.80,ESE,105,3.0,3.0,90,0.00,,CLR,0.00,VWS V14.01,2013-09-23 04:56:00,
2013-09-23 00:58:00,78.5,75.3,29.80,ESE,122,2.0,3.0,90,0.00,,CLR,0.00,VWS V14.01,2013-09-23 04:58:00,
2013-09-23 01:00:00,78.6,75.4,29.80,ESE,112,1.0,3.0,90,0.00,,CLR,0.00,VWS V14.01,2013-09-23 05:00:00,
2013-09-23 01:01:00,78.6,75.4,29.80,SE,132,1.0,1.0,90,0.00,,CLR,0.00,VWS V14.01,2013-09-23 05:01:00,
2013-09-23 01:03:00,78.6,75.4,29.80,ESE,121,1.0,2.0,90,0.00,,CLR,0.00,VWS V14.01,2013-09-23 05:03:00,
2013-09-23 01:05:00,78.5,75.3,29.80,ESE,117,1.0,2.0,90,0.00,,CLR,0.00,VWS V14.01,2013-09-23 05:05:00,
2013-09-23 01:06:00,78.5,75.3,29.80,ESE,110,1.0,2.0,90,0.00,,CLR,0.00,VWS V14.01,2013-09-23 05:06:00,
2013-09-23 01:08:00,78.5,75.3,29.80,ESE,110,2.0,2.0,90,0.00,,CLR,0.00,VWS V14.01,2013-09-23 05:08:00,
2013-09-23 01:10:00,78.4,75.2,29.79,ESE,114,2.0,2.0,90,0.00,,CLR,0.00,VWS V14.01,2013-09-23 05:10:00,
2013-09-23 01:11:00,78.4,75.2,29.79,ESE,117,2.0,3.0,90,0.00,,CLR,0.00,VWS V14.01,2013-09-23 05:11:00,
2013-09-23 01:13:00,78.4,75.2,29.79,ESE,116,2.0,3.0,90,0.00,,CLR,0.00,VWS V14.01,2013-09-23 05:13:00,
2013-09-23 01:15:00,78.4,75.2,29.79,ESE,119,3.0,4.0,90,0.00,,CLR,0.00,VWS V14.01,2013-09-23 05:15:00,
2013-09-23 01:17:00,78.3,75.1,29.79,ESE,111,1.0,3.0,90,0.00,,CLR,0.00,VWS V14.01,2013-09-23 05:17:00,
2013-09-23 01:18:00,78.3,75.1,29.79,ESE,105,2.0,4.0,90,0.00,,CLR,0.00,VWS V14.01,2013-09-23 05:18:00,
2013-09-23 01:21:00,78.3,75.1,29.79,ESE,105,2.0,4.0,90,0.00,,CLR,0.00,VWS V14.01,2013-09-23 05:21:00,
2013-09-23 01:22:00,78.3,75.1,29.79,East,97,1.0,4.0,90,0.00,,CLR,0.00,VWS V14.01,2013-09-23 05:22:00,
2013-09-23 01:23:00,78.3,75.1,29.79,East,97,3.0,4.0,90,0.00,,CLR,0.00,VWS V14.01,2013-09-23 05:23:00,
2013-09-23 01:24:00,78.3,75.1,29.79,East,96,1.0,4.0,90,0.00,,CLR,0.00,VWS V14.01,2013-09-23 05:24:00,
2013-09-23 01:26:00,78.3,75.1,29.78,East,94,2.0,2.0,90,0.00,,CLR,0.00,VWS V14.01,2013-09-23 05:26:00,
2013-09-23 01:27:00,78.3,75.1,29.78,ESE,112,3.0,3.0,90,0.00,,CLR,0.00,VWS V14.01,2013-09-23 05:27:00,
2013-09-23 01:29:00,78.3,75.1,29.78,ESE,108,2.0,3.0,90,0.00,,CLR,0.00,VWS V14.01,2013-09-23 05:29:00,
2013-09-23 01:31:00,78.2,75.0,29.78,ESE,108,1.0,2.0,90,0.00,,CLR,0.00,VWS V14.01,2013-09-23 05:31:00,
2013-09-23 01:32:00,78.2,75.0,29.78,East,98,1.0,3.0,90,0.00,,CLR,0.00,VWS V14.01,2013-09-23 05:32:00,
2013-09-23 01:34:00,78.2,75.0,29.79,ESE,112,2.0,3.0,90,0.00,,CLR,0.00,VWS V14.01,2013-09-23 05:34:00,
2013-09-23 01:36:00,78.2,75.4,29.78,ESE,108,1.0,2.0,91,0.00,,CLR,0.00,VWS V14.01,2013-09-23 05:36:00,
2013-09-23 01:37:00,78.2,75.0,29.79,ESE,107,1.0,2.0,90,0.00,,CLR,0.00,VWS V14.01,2013-09-23 05:37:00,
2013-09-23 01:39:00,78.2,75.4,29.79,ESE,105,2.0,2.0,91,0.00,,CLR,0.00,VWS V14.01,2013-09-23 05:39:00,
2013-09-23 01:41:00,78.1,75.3,29.78,ESE,108,0.0,2.0,91,0.00,,CLR,0.00,VWS V14.01,2013-09-23 05:41:00,
2013-09-23 01:42:00,78.1,75.3,29.78,ESE,111,3.0,3.0,91,0.00,,CLR,0.00,VWS V14.01,2013-09-23 05:42:00,
2013-09-23 01:44:00,78.1,75.3,29.78,ESE,105,2.0,3.0,91,0.00,,CLR,0.00,VWS V14.01,2013-09-23 05:44:00,
2013-09-23 01:45:00,78.1,75.3,29.78,SE,124,2.0,3.0,91,0.00,,CLR,0.00,VWS V14.01,2013-09-23 05:45:00,
2013-09-23 01:47:00,78.1,75.3,29.78,ESE,111,1.0,3.0,91,0.00,,CLR,0.00,VWS V14.01,2013-09-23 05:47:00,
2013-09-23 01:48:00,78.1,75.3,29.78,ESE,120,1.0,3.0,91,0.00,,CLR,0.00,VWS V14.01,2013-09-23 05:48:00,
2013-09-23 01:49:00,78.1,75.3,29.78,East,101,1.0,3.0,91,0.00,,CLR,0.00,VWS V14.01,2013-09-23 05:49:00,
2013-09-23 01:50:00,78.0,75.2,29.78,East,101,1.0,3.0,91,0.00,,CLR,0.00,VWS V14.01,2013-09-23 05:50:00,
2013-09-23 01:52:00,78.0,75.2,29.78,ESE,103,1.0,1.0,91,0.00,,CLR,0.00,VWS V14.01,2013-09-23 05:52:00,
2013-09-23 01:53:00,78.0,75.2,29.78,ESE,103,0.0,1.0,91,0.00,,CLR,0.00,VWS V14.01,2013-09-23 05:53:00,
2013-09-23 01:54:00,78.0,75.2,29.78,ESE,103,0.0,1.0,91,0.00,,CLR,0.00,VWS V14.01,2013-09-23 05:54:00,
2013-09-23 01:55:00,78.0,75.2,29.78,ESE,117,2.0,2.0,91,0.00,,CLR,0.00,VWS V14.01,2013-09-23 05:55:00,
2013-09-23 01:57:00,78.0,75.2,29.78,SE,131,1.0,2.0,91,0.00,,CLR,0.00,VWS V14.01,2013-09-23 05:57:00,
2013-09-23 01:58:00,78.0,75.2,29.79,ESE,117,2.0,2.0,91,0.00,,CLR,0.00,VWS V14.01,2013-09-23 05:58:00,
2013-09-23 01:59:00,77.9,75.1,29.78,ESE,117,1.0,2.0,91,0.00,,CLR,0.00,VWS V14.01,2013-09-23 05:59:00,
2013-09-23 02:00:00,77.9,75.1,29.78,East,101,2.0,2.0,91,0.00,,CLR,0.00,VWS V14.01,2013-09-23 06:00:00,
2013-09-23 02:03:00,77.9,75.1,29.78,ESE,107,1.0,2.0,91,0.00,,CLR,0.00,VWS V14.01,2013-09-23 06:03:00,
2013-09-23 02:05:00,77.8,75.0,29.78,East,98,1.0,2.0,91,0.00,,CLR,0.00,VWS V14.01,2013-09-23 06:05:00,
2013-09-23 02:08:00,77.8,75.0,29.78,ESE,103,1.0,2.0,91,0.00,,CLR,0.00,VWS V14.01,2013-09-23 06:08:00,
2013-09-23 02:10:00,77.8,75.0,29.78,ESE,104,1.0,2.0,91,0.00,,CLR,0.00,VWS V14.01,2013-09-23 06:10:00,
2013-09-23 02:11:00,77.8,75.0,29.78,East,101,1.0,1.0,91,0.00,,CLR,0.00,VWS V14.01,2013-09-23 06:11:00,
2013-09-23 02:13:00,77.8,75.0,29.78,East,101,1.0,1.0,91,0.00,,CLR,0.00,VWS V14.01,2013-09-23 06:13:00,
2013-09-23 02:15:00,77.7,74.9,29.78,East,101,2.0,2.0,91,0.00,,CLR,0.00,VWS V14.01,2013-09-23 06:15:00,
2013-09-23 02:16:00,77.7,74.9,29.78,East,101,0.0,2.0,91,0.00,,CLR,0.00,VWS V14.01,2013-09-23 06:16:00,
2013-09-23 02:18:00,77.6,74.8,29.78,ESE,104,0.0,2.0,91,0.00,,CLR,0.00,VWS V14.01,2013-09-23 06:18:00,
2013-09-23 02:20:00,77.6,74.8,29.78,ESE,110,1.0,3.0,91,0.00,,CLR,0.00,VWS V14.01,2013-09-23 06:20:00,
2013-09-23 02:21:00,77.6,74.8,29.78,ESE,106,2.0,2.0,91,0.00,,CLR,0.00,VWS V14.01,2013-09-23 06:21:00,
2013-09-23 02:23:00,77.6,75.1,29.78,ESE,103,0.0,3.0,92,0.00,,CLR,0.00,VWS V14.01,2013-09-23 06:23:00,
2013-09-23 02:25:00,77.6,75.1,29.78,ESE,103,1.0,3.0,92,0.00,,CLR,0.00,VWS V14.01,2013-09-23 06:25:00,
2013-09-23 02:26:00,77.6,75.1,29.78,ESE,108,1.0,2.0,92,0.00,,CLR,0.00,VWS V14.01,2013-09-23 06:26:00,
2013-09-23 02:28:00,77.5,75.0,29.78,East,96,1.0,2.0,92,0.00,,CLR,0.00,VWS V14.01,2013-09-23 06:28:00,
2013-09-23 02:30:00,77.6,75.1,29.78,East,92,3.0,3.0,92,0.00,,CLR,0.00,VWS V14.01,2013-09-23 06:30:00,
2013-09-23 02:32:00,77.6,75.1,29.78,East,86,1.0,3.0,92,0.00,,CLR,0.00,VWS V14.01,2013-09-23 06:32:00,
2013-09-23 02:33:00,77.6,75.1,29.78,ESE,105,1.0,3.0,92,0.00,,CLR,0.00,VWS V14.01,2013-09-23 06:33:00,
2013-09-23 02:34:00,77.5,75.0,29.78,East,101,1.0,3.0,92,0.00,,CLR,0.00,VWS V14.01,2013-09-23 06:34:00,
2013-09-23 02:35:00,77.6,75.1,29.78,ESE,105,0.0,3.0,92,0.00,,CLR,0.00,VWS V14.01,2013-09-23 06:35:00,
2013-09-23 02:36:00,77.5,75.0,29.78,ESE,108,1.0,1.0,92,0.00,,CLR,0.00,VWS V14.01,2013-09-23 06:36:00,
2013-09-23 02:37:00,77.6,75.1,29.78,ESE,108,1.0,2.0,92,0.00,,CLR,0.00,VWS V14.01,2013-09-23 06:37:00,
2013-09-23 02:38:00,77.6,75.1,29.78,ESE,108,1.0,2.0,92,0.00,,CLR,0.00,VWS V14.01,2013-09-23 06:38:00,
2013-09-23 02:39:00,77.6,75.1,29.78,ESE,105,1.0,2.0,92,0.00,,CLR,0.00,VWS V14.01,2013-09-23 06:39:00,
2013-09-23 02:40:00,77.6,75.1,29.78,ESE,103,1.0,3.0,92,0.00,,CLR,0.00,VWS V14.01,2013-09-23 06:40:00,
2013-09-23 02:41:00,77.6,75.1,29.78,ESE,105,2.0,2.0,92,0.00,,CLR,0.00,VWS V14.01,2013-09-23 06:41:00,
2013-09-23 02:42:00,77.6,75.1,29.78,ESE,106,0.0,2.0,92,0.00,,CLR,0.00,VWS V14.01,2013-09-23 06:42:00,
2013-09-23 02:43:00,77.5,75.0,29.78,ESE,109,1.0,2.0,92,0.00,,CLR,0.00,VWS V14.01,2013-09-23 06:43:00,
2013-09-23 02:44:00,77.5,75.0,29.78,ESE,108,1.0,2.0,92,0.00,,CLR,0.00,VWS V14.01,2013-09-23 06:44:00,
2013-09-23 02:46:00,77.6,75.1,29.78,ESE,110,2.0,2.0,92,0.00,,CLR,0.00,VWS V14.01,2013-09-23 06:46:00,
2013-09-23 02:48:00,77.6,75.1,29.78,ESE,107,1.0,3.0,92,0.00,,CLR,0.00,VWS V14.01,2013-09-23 06:48:00,
2013-09-23 02:49:00,77.6,75.1,29.78,ESE,110,0.0,3.0,92,0.00,,CLR,0.00,VWS V14.01,2013-09-23 06:49:00,
2013-09-23 02:51:00,77.6,75.1,29.78,ESE,105,1.0,1.0,92,0.00,,CLR,0.00,VWS V14.01,2013-09-23 06:51:00,
2013-09-23 02:53:00,77.6,75.1,29.78,ESE,105,1.0,2.0,92,0.00,,CLR,0.00,VWS V14.01,2013-09-23 06:53:00,
2013-09-23 02:54:00,77.6,75.1,29.78,ESE,106,2.0,3.0,92,0.00,,CLR,0.00,VWS V14.01,2013-09-23 06:54:00,
2013-09-23 02:56:00,77.6,75.1,29.78,ESE,106,1.0,1.0,92,0.00,,CLR,0.00,VWS V14.01,2013-09-23 06:56:00,
2013-09-23 02:58:00,77.6,75.1,29.78,ESE,105,0.0,2.0,92,0.00,,CLR,0.00,VWS V14.01,2013-09-23 06:58:00,
2013-09-23 02:59:00,77.6,75.1,29.78,ESE,105,1.0,2.0,92,0.00,,CLR,0.00,VWS V14.01,2013-09-23 06:59:00,
2013-09-23 03:01:00,77.6,75.1,29.78,ESE,105,0.0,2.0,92,0.00,,CLR,0.00,VWS V14.01,2013-09-23 07:01:00,
2013-09-23 03:03:00,77.6,75.1,29.78,ESE,106,1.0,2.0,92,0.00,,CLR,0.00,VWS V14.01,2013-09-23 07:03:00,
2013-09-23 03:04:00,77.6,75.1,29.78,ESE,105,1.0,2.0,92,0.00,,CLR,0.00,VWS V14.01,2013-09-23 07:04:00,
2013-09-23 03:06:00,77.6,75.1,29.78,ESE,105,1.0,2.0,92,0.00,,CLR,0.00,VWS V14.01,2013-09-23 07:06:00,
2013-09-23 03:09:00,77.6,75.1,29.78,ESE,103,1.0,2.0,92,0.00,,CLR,0.00,VWS V14.01,2013-09-23 07:09:00,
2013-09-23 03:10:00,77.6,75.1,29.78,ESE,103,1.0,2.0,92,0.00,,CLR,0.00,VWS V14.01,2013-09-23 07:10:00,
2013-09-23 03:11:00,77.6,75.1,29.78,ESE,103,2.0,2.0,92,0.00,,CLR,0.00,VWS V14.01,2013-09-23 07:11:00,
2013-09-23 03:14:00,77.6,75.1,29.78,ESE,105,1.0,2.0,92,0.00,,CLR,0.00,VWS V14.01,2013-09-23 07:14:00,
2013-09-23 03:16:00,77.5,75.0,29.78,ESE,105,1.0,1.0,92,0.00,,CLR,0.00,VWS V14.01,2013-09-23 07:16:00,
2013-09-23 03:19:00,77.5,75.0,29.78,East,99,1.0,3.0,92,0.00,,CLR,0.00,VWS V14.01,2013-09-23 07:19:00,
2013-09-23 03:20:00,77.5,75.0,29.78,ESE,105,2.0,3.0,92,0.00,,CLR,0.00,VWS V14.01,2013-09-23 07:20:00,
2013-09-23 03:21:00,77.5,75.0,29.78,ESE,105,2.0,2.0,92,0.00,,CLR,0.00,VWS V14.01,2013-09-23 07:21:00,
2013-09-23 03:22:00,77.5,75.0,29.78,ESE,104,0.0,2.0,92,0.00,,CLR,0.00,VWS V14.01,2013-09-23 07:22:00,
2013-09-23 03:24:00,77.5,75.0,29.78,ESE,104,0.0,3.0,92,0.00,,CLR,0.00,VWS V14.01,2013-09-23 07:24:00,
2013-09-23 03:25:00,77.5,75.0,29.78,ESE,104,0.0,3.0,92,0.00,,CLR,0.00,VWS V14.01,2013-09-23 07:25:00,
2013-09-23 03:26:00,77.5,75.0,29.78,ESE,105,1.0,2.0,92,0.00,,CLR,0.00,VWS V14.01,2013-09-23 07:26:00,
2013-09-23 03:27:00,77.5,75.0,29.78,ESE,106,0.0,2.0,92,0.00,,CLR,0.00,VWS V14.01,2013-09-23 07:27:00,
2013-09-23 03:30:00,77.5,75.0,29.78,East,101,1.0,2.0,92,0.00,,CLR,0.00,VWS V14.01,2013-09-23 07:30:00,
2013-09-23 03:31:00,77.5,75.0,29.78,East,101,3.0,3.0,92,0.00,,CLR,0.00,VWS V14.01,2013-09-23 07:31:00,
2013-09-23 03:32:00,77.5,75.0,29.78,East,101,0.0,3.0,92,0.00,,CLR,0.00,VWS V14.01,2013-09-23 07:32:00,
2013-09-23 03:35:00,77.5,75.0,29.78,ESE,105,1.0,3.0,92,0.00,,CLR,0.00,VWS V14.01,2013-09-23 07:35:00,
2013-09-23 03:36:00,77.5,75.0,29.78,ESE,105,0.0,0.0,92,0.00,,CLR,0.00,VWS V14.01,2013-09-23 07:36:00,
2013-09-23 03:37:00,77.4,74.9,29.78,ESE,105,0.0,0.0,92,0.00,,CLR,0.00,VWS V14.01,2013-09-23 07:37:00,
2013-09-23 03:40:00,77.4,74.9,29.78,ESE,105,1.0,1.0,92,0.00,,CLR,0.00,VWS V14.01,2013-09-23 07:40:00,
2013-09-23 03:41:00,77.4,74.9,29.78,ESE,103,1.0,1.0,92,0.00,,CLR,0.00,VWS V14.01,2013-09-23 07:41:00,
2013-09-23 03:42:00,77.4,74.9,29.78,ESE,105,1.0,1.0,92,0.00,,CLR,0.00,VWS V14.01,2013-09-23 07:42:00,
2013-09-23 03:45:00,77.5,75.0,29.78,East,101,1.0,2.0,92,0.00,,CLR,0.00,VWS V14.01,2013-09-23 07:45:00,
2013-09-23 03:46:00,77.5,75.0,29.78,ESE,103,1.0,1.0,92,0.00,,CLR,0.00,VWS V14.01,2013-09-23 07:46:00,
2013-09-23 03:47:00,77.5,75.0,29.78,ESE,103,1.0,2.0,92,0.00,,CLR,0.00,VWS V14.01,2013-09-23 07:47:00,
2013-09-23 03:50:00,77.5,75.0,29.78,ESE,103,2.0,2.0,92,0.00,,CLR,0.00,VWS V14.01,2013-09-23 07:50:00,
2013-09-23 03:52:00,77.5,75.0,29.78,ESE,103,0.0,1.0,92,0.00,,CLR,0.00,VWS V14.01,2013-09-23 07:52:00,
2013-09-23 03:53:00,77.5,75.0,29.78,ESE,103,0.0,1.0,92,0.00,,CLR,0.00,VWS V14.01,2013-09-23 07:53:00,
2013-09-23 03:55:00,77.5,75.0,29.78,ESE,105,2.0,3.0,92,0.00,,CLR,0.00,VWS V14.01,2013-09-23 07:55:00,
2013-09-23 03:57:00,77.5,75.0,29.78,ESE,105,2.0,2.0,92,0.00,,CLR,0.00,VWS V14.01,2013-09-23 07:57:00,
2013-09-23 03:58:00,77.5,75.0,29.78,ESE,104,1.0,2.0,92,0.00,,CLR,0.00,VWS V14.01,2013-09-23 07:58:00,
2013-09-23 04:00:00,77.5,75.0,29.78,East,94,4.0,4.0,92,0.00,,CLR,0.00,VWS V14.01,2013-09-23 08:00:00,
2013-09-23 04:02:00,77.5,75.0,29.78,ESE,103,2.0,2.0,92,0.00,,CLR,0.00,VWS V14.01,2013-09-23 08:02:00,
2013-09-23 04:03:00,77.5,75.0,29.78,East,101,1.0,2.0,92,0.00,,CLR,0.00,VWS V14.01,2013-09-23 08:03:00,
2013-09-23 04:05:00,77.5,75.0,29.78,ESE,103,2.0,2.0,92,0.00,,CLR,0.00,VWS V14.01,2013-09-23 08:05:00,
2013-09-23 04:07:00,77.5,75.0,29.78,ESE,103,1.0,3.0,92,0.00,,CLR,0.00,VWS V14.01,2013-09-23 08:07:00,
2013-09-23 04:08:00,77.5,75.0,29.78,East,101,1.0,3.0,92,0.00,,CLR,0.00,VWS V14.01,2013-09-23 08:08:00,
2013-09-23 04:09:00,77.5,75.0,29.78,East,86,2.0,3.0,92,0.00,,CLR,0.00,VWS V14.01,2013-09-23 08:09:00,
2013-09-23 04:10:00,77.4,74.9,29.78,ESE,104,1.0,3.0,92,0.00,,CLR,0.00,VWS V14.01,2013-09-23 08:10:00,
2013-09-23 04:13:00,77.5,75.0,29.78,ESE,105,1.0,2.0,92,0.00,,CLR,0.00,VWS V14.01,2013-09-23 08:13:00,
2013-09-23 04:14:00,77.5,75.0,29.78,ENE,75,1.0,2.0,92,0.00,,CLR,0.00,VWS V14.01,2013-09-23 08:14:00,
2013-09-23 04:15:00,77.5,75.0,29.78,East,100,1.0,3.0,92,0.00,,CLR,0.00,VWS V14.01,2013-09-23 08:15:00,
2013-09-23 04:18:00,77.5,75.0,29.78,East,101,2.0,4.0,92,0.00,,CLR,0.00,VWS V14.01,2013-09-23 08:18:00,
2013-09-23 04:20:00,77.5,75.0,29.78,ESE,112,3.0,4.0,92,0.00,,CLR,0.00,VWS V14.01,2013-09-23 08:20:00,
2013-09-23 04:23:00,77.5,75.0,29.78,ESE,105,2.0,6.0,92,0.00,,CLR,0.00,VWS V14.01,2013-09-23 08:23:00,
2013-09-23 04:25:00,77.5,75.0,29.78,ESE,108,2.0,6.0,92,0.00,,CLR,0.00,VWS V14.01,2013-09-23 08:25:00,
2013-09-23 04:28:00,77.6,75.1,29.78,East,90,3.0,4.0,92,0.00,,CLR,0.00,VWS V14.01,2013-09-23 08:28:00,
2013-09-23 04:30:00,77.6,75.1,29.78,East,99,3.0,5.0,92,0.00,,CLR,0.00,VWS V14.01,2013-09-23 08:30:00,
2013-09-23 04:33:00,77.7,75.2,29.78,East,98,2.0,5.0,92,0.00,,CLR,0.00,VWS V14.01,2013-09-23 08:33:00,
2013-09-23 04:34:00,77.7,75.2,29.78,East,101,2.0,5.0,92,0.00,,CLR,0.00,VWS V14.01,2013-09-23 08:34:00,
2013-09-23 04:35:00,77.7,75.2,29.78,East,96,1.0,5.0,92,0.00,,CLR,0.00,VWS V14.01,2013-09-23 08:35:00,
2013-09-23 04:36:00,77.7,75.2,29.78,East,101,2.0,5.0,92,0.00,,CLR,0.00,VWS V14.01,2013-09-23 08:36:00,
2013-09-23 04:38:00,77.7,75.2,29.78,East,98,1.0,2.0,92,0.00,,CLR,0.00,VWS V14.01,2013-09-23 08:38:00,
2013-09-23 04:39:00,77.7,75.2,29.78,East,98,2.0,3.0,92,0.00,,CLR,0.00,VWS V14.01,2013-09-23 08:39:00,
2013-09-23 04:40:00,77.7,75.2,29.78,East,95,3.0,4.0,92,0.00,,CLR,0.00,VWS V14.01,2013-09-23 08:40:00,
2013-09-23 04:41:00,77.7,75.2,29.78,ESE,108,3.0,4.0,92,0.00,,CLR,0.00,VWS V14.01,2013-09-23 08:41:00,
2013-09-23 04:43:00,77.7,75.2,29.78,ESE,105,2.0,3.0,92,0.00,,CLR,0.00,VWS V14.01,2013-09-23 08:43:00,
2013-09-23 04:44:00,77.7,75.2,29.78,ESE,104,1.0,3.0,92,0.00,,CLR,0.00,VWS V14.01,2013-09-23 08:44:00,
2013-09-23 04:46:00,77.7,75.2,29.78,ENE,63,2.0,5.0,92,0.00,,CLR,0.00,VWS V14.01,2013-09-23 08:46:00,
2013-09-23 04:48:00,77.7,75.2,29.78,East,101,2.0,3.0,92,0.00,,CLR,0.00,VWS V14.01,2013-09-23 08:48:00,
2013-09-23 04:49:00,77.8,75.3,29.78,East,101,1.0,3.0,92,0.00,,CLR,0.00,VWS V14.01,2013-09-23 08:49:00,
2013-09-23 04:50:00,77.7,75.2,29.78,East,96,0.0,3.0,92,0.00,,CLR,0.00,VWS V14.01,2013-09-23 08:50:00,
2013-09-23 04:51:00,77.7,75.2,29.78,East,96,1.0,1.0,92,0.00,,CLR,0.00,VWS V14.01,2013-09-23 08:51:00,
2013-09-23 04:53:00,77.7,75.2,29.78,East,85,1.0,3.0,92,0.00,,CLR,0.00,VWS V14.01,2013-09-23 08:53:00,
2013-09-23 04:54:00,77.7,75.2,29.78,East,84,1.0,3.0,92,0.00,,CLR,0.00,VWS V14.01,2013-09-23 08:54:00,
2013-09-23 04:55:00,77.7,75.2,29.79,East,84,0.0,3.0,92,0.00,,CLR,0.00,VWS V14.01,2013-09-23 08:55:00,
2013-09-23 04:56:00,77.7,75.2,29.79,ENE,63,3.0,4.0,92,0.00,,CLR,0.00,VWS V14.01,2013-09-23 08:56:00,
2013-09-23 04:59:00,77.7,75.2,29.79,East,95,1.0,4.0,92,0.00,,CLR,0.00,VWS V14.01,2013-09-23 08:59:00,
2013-09-23 05:00:00,77.7,75.2,29.79,East,100,1.0,4.0,92,0.00,,CLR,0.00,VWS V14.01,2013-09-23 09:00:00,
2013-09-23 05:01:00,77.7,75.5,29.79,ESE,107,2.0,2.0,93,0.00,,CLR,0.00,VWS V14.01,2013-09-23 09:01:00,
2013-09-23 05:04:00,77.7,75.5,29.79,East,86,2.0,3.0,93,0.00,,CLR,0.00,VWS V14.01,2013-09-23 09:04:00,
2013-09-23 05:05:00,77.7,75.5,29.79,East,99,2.0,3.0,93,0.00,,CLR,0.00,VWS V14.01,2013-09-23 09:05:00,
2013-09-23 05:06:00,77.7,75.5,29.79,ESE,103,2.0,4.0,93,0.00,,CLR,0.00,VWS V14.01,2013-09-23 09:06:00,
2013-09-23 05:07:00,77.7,75.5,29.79,ESE,105,3.0,4.0,93,0.00,,CLR,0.00,VWS V14.01,2013-09-23 09:07:00,
2013-09-23 05:09:00,77.8,75.6,29.79,ESE,109,4.0,4.0,93,0.00,,CLR,0.00,VWS V14.01,2013-09-23 09:09:00,
2013-09-23 05:10:00,77.8,75.6,29.79,ESE,105,3.0,4.0,93,0.00,,CLR,0.00,VWS V14.01,2013-09-23 09:10:00,
2013-09-23 05:12:00,77.8,75.6,29.79,ESE,114,0.0,1.0,93,0.00,,CLR,0.00,VWS V14.01,2013-09-23 09:12:00,
2013-09-23 05:14:00,77.8,75.6,29.79,ESE,108,3.0,4.0,93,0.00,,CLR,0.00,VWS V14.01,2013-09-23 09:14:00,
2013-09-23 05:15:00,77.8,75.6,29.79,ESE,105,3.0,5.0,93,0.00,,CLR,0.00,VWS V14.01,2013-09-23 09:15:00,
2013-09-23 05:17:00,77.8,75.6,29.79,ESE,114,4.0,4.0,93,0.00,,CLR,0.00,VWS V14.01,2013-09-23 09:17:00,
2013-09-23 05:19:00,77.9,75.7,29.79,East,95,3.0,6.0,93,0.00,,CLR,0.00,VWS V14.01,2013-09-23 09:19:00,
2013-09-23 05:20:00,77.9,75.7,29.79,East,99,1.0,6.0,93,0.00,,CLR,0.00,VWS V14.01,2013-09-23 09:20:00,
2013-09-23 05:22:00,77.9,75.7,29.79,East,95,1.0,3.0,93,0.00,,CLR,0.00,VWS V14.01,2013-09-23 09:22:00,
2013-09-23 05:24:00,77.9,75.7,29.79,East,100,2.0,3.0,93,0.00,,CLR,0.00,VWS V14.01,2013-09-23 09:24:00,
2013-09-23 05:25:00,77.9,75.7,29.79,East,100,2.0,3.0,93,0.00,,CLR,0.00,VWS V14.01,2013-09-23 09:25:00,
2013-09-23 05:26:00,77.9,75.7,29.79,East,99,1.0,1.0,93,0.00,,CLR,0.00,VWS V14.01,2013-09-23 09:26:00,
2013-09-23 05:27:00,77.9,75.7,29.79,East,98,2.0,2.0,93,0.00,,CLR,0.00,VWS V14.01,2013-09-23 09:27:00,
2013-09-23 05:29:00,77.9,75.7,29.79,East,93,2.0,6.0,93,0.00,,CLR,0.00,VWS V14.01,2013-09-23 09:29:00,
2013-09-23 05:30:00,77.9,75.7,29.79,East,95,4.0,6.0,93,0.00,,CLR,0.00,VWS V14.01,2013-09-23 09:30:00,
2013-09-23 05:31:00,77.9,75.7,29.79,East,94,3.0,3.0,93,0.00,,CLR,0.00,VWS V14.01,2013-09-23 09:31:00,
2013-09-23 05:32:00,77.9,75.7,29.79,East,86,2.0,3.0,93,0.00,,CLR,0.00,VWS V14.01,2013-09-23 09:32:00,
2013-09-23 05:34:00,77.9,75.7,29.79,East,101,2.0,6.0,93,0.00,,CLR,0.00,VWS V14.01,2013-09-23 09:34:00,
2013-09-23 05:35:00,77.9,75.7,29.79,ESE,108,2.0,6.0,93,0.00,,CLR,0.00,VWS V14.01,2013-09-23 09:35:00,
2013-09-23 05:36:00,77.9,75.7,29.79,ESE,105,3.0,4.0,93,0.00,,FEW095,0.00,VWS V14.01,2013-09-23 09:36:00,
2013-09-23 05:37:00,77.9,75.7,29.79,East,101,2.0,4.0,93,0.00,,FEW095,0.00,VWS V14.01,2013-09-23 09:37:00,
2013-09-23 05:39:00,77.9,75.7,29.79,ESE,103,1.0,4.0,93,0.00,,FEW095,0.00,VWS V14.01,2013-09-23 09:39:00,
2013-09-23 05:40:00,77.9,75.7,29.79,ESE,103,2.0,4.0,93,0.00,,FEW095,0.00,VWS V14.01,2013-09-23 09:40:00,
2013-09-23 05:41:00,77.9,75.7,29.79,East,97,2.0,3.0,93,0.00,,FEW095,0.00,VWS V14.01,2013-09-23 09:41:00,
2013-09-23 05:42:00,77.9,75.7,29.79,East,96,2.0,3.0,93,0.00,,FEW095,0.00,VWS V14.01,2013-09-23 09:42:00,
2013-09-23 05:43:00,77.9,75.7,29.79,ENE,72,3.0,3.0,93,0.00,,FEW095,0.00,VWS V14.01,2013-09-23 09:43:00,
2013-09-23 05:45:00,77.9,75.7,29.79,East,101,3.0,3.0,93,0.00,,FEW095,0.00,VWS V14.01,2013-09-23 09:45:00,
2013-09-23 05:46:00,77.9,75.7,29.79,ESE,103,2.0,4.0,93,0.00,,FEW095,0.00,VWS V14.01,2013-09-23 09:46:00,
2013-09-23 05:47:00,77.9,75.7,29.79,East,101,2.0,4.0,93,0.00,,FEW095,0.00,VWS V14.01,2013-09-23 09:47:00,
2013-09-23 05:48:00,77.9,75.7,29.79,East,99,4.0,4.0,93,0.00,,FEW095,0.00,VWS V14.01,2013-09-23 09:48:00,
2013-09-23 05:50:00,77.9,75.7,29.79,East,82,3.0,4.0,93,0.00,,FEW095,0.00,VWS V14.01,2013-09-23 09:50:00,
2013-09-23 05:51:00,77.8,75.6,29.79,ENE,75,3.0,5.0,93,0.00,,FEW095,0.00,VWS V14.01,2013-09-23 09:51:00,
2013-09-23 05:52:00,77.8,75.6,29.79,ENE,65,3.0,5.0,93,0.00,,FEW095,0.00,VWS V14.01,2013-09-23 09:52:00,
2013-09-23 05:53:00,77.9,75.7,29.79,ENE,65,3.0,5.0,93,0.00,,FEW095,0.00,VWS V14.01,2013-09-23 09:53:00,
2013-09-23 05:55:00,77.8,75.6,29.79,East,98,3.0,6.0,93,0.00,,FEW095,0.00,VWS V14.01,2013-09-23 09:55:00,
2013-09-23 05:56:00,77.8,75.6,29.79,East,91,2.0,3.0,93,0.00,,FEW095,0.00,VWS V14.01,2013-09-23 09:56:00,
2013-09-23 05:57:00,77.8,75.6,29.79,East,97,3.0,4.0,93,0.00,,FEW095,0.00,VWS V14.01,2013-09-23 09:57:00,
2013-09-23 05:59:00,77.8,75.6,29.79,ENE,70,5.0,5.0,93,0.00,,FEW095,0.00,VWS V14.01,2013-09-23 09:59:00,
2013-09-23 06:00:00,77.8,75.6,29.79,ESE,114,4.0,5.0,93,0.00,,FEW095,0.00,VWS V14.01,2013-09-23 10:00:00,
2013-09-23 06:02:00,77.8,75.6,29.79,ENE,71,5.0,5.0,93,0.00,,FEW095,0.00,VWS V14.01,2013-09-23 10:02:00,
2013-09-23 06:05:00,77.8,75.6,29.79,ENE,63,4.0,6.0,93,0.00,,FEW095,0.00,VWS V14.01,2013-09-23 10:05:00,
2013-09-23 06:06:00,77.7,75.5,29.79,ENE,68,3.0,6.0,93,0.00,,FEW095,0.00,VWS V14.01,2013-09-23 10:06:00,
2013-09-23 06:07:00,77.7,75.5,29.79,East,91,3.0,6.0,93,0.00,,FEW095,0.00,VWS V14.01,2013-09-23 10:07:00,
2013-09-23 06:10:00,77.7,75.5,29.79,ESE,106,3.0,6.0,93,0.00,,FEW095,0.00,VWS V14.01,2013-09-23 10:10:00,
2013-09-23 06:11:00,77.7,75.5,29.79,East,95,4.0,4.0,93,0.00,,FEW095,0.00,VWS V14.01,2013-09-23 10:11:00,
2013-09-23 06:12:00,77.7,75.5,29.79,ESE,108,2.0,4.0,93,0.00,,FEW095,0.00,VWS V14.01,2013-09-23 10:12:00,
2013-09-23 06:13:00,77.7,75.5,29.79,East,86,2.0,4.0,93,0.00,,FEW095,0.00,VWS V14.01,2013-09-23 10:13:00,
2013-09-23 06:16:00,77.6,75.4,29.79,East,94,1.0,2.0,93,0.00,,FEW095,0.00,VWS V14.01,2013-09-23 10:16:00,
2013-09-23 06:17:00,77.6,75.4,29.79,SE,140,1.0,3.0,93,0.00,,FEW095,0.00,VWS V14.01,2013-09-23 10:17:00,
2013-09-23 06:18:00,77.6,75.4,29.79,NE,49,3.0,4.0,93,0.00,,FEW095,0.00,VWS V14.01,2013-09-23 10:18:00,
2013-09-23 06:21:00,77.5,75.6,29.79,East,94,4.0,4.0,94,0.00,,FEW095,0.00,VWS V14.01,2013-09-23 10:21:00,
2013-09-23 06:22:00,77.5,75.6,29.79,ESE,108,3.0,8.0,94,0.00,,FEW095,0.00,VWS V14.01,2013-09-23 10:22:00,
2013-09-23 06:23:00,77.5,75.6,29.79,East,94,6.0,8.0,94,0.00,,FEW095,0.00,VWS V14.01,2013-09-23 10:23:00,
2013-09-23 06:26:00,77.5,75.6,29.79,East,80,4.0,4.0,94,0.00,,FEW095,0.00,VWS V14.01,2013-09-23 10:26:00,
2013-09-23 06:27:00,77.5,75.6,29.79,East,97,8.0,8.0,94,0.00,,FEW095,0.00,VWS V14.01,2013-09-23 10:27:00,
2013-09-23 06:28:00,77.5,75.6,29.79,SE,143,2.0,9.0,94,0.00,,FEW095,0.00,VWS V14.01,2013-09-23 10:28:00,
2013-09-23 06:31:00,77.5,75.6,29.80,East,101,2.0,5.0,94,0.00,,FEW095,0.00,VWS V14.01,2013-09-23 10:31:00,
2013-09-23 06:32:00,77.4,75.5,29.80,East,92,5.0,8.0,94,0.00,,FEW095,0.00,VWS V14.01,2013-09-23 10:32:00,
2013-09-23 06:33:00,77.4,75.5,29.79,East,83,4.0,8.0,94,0.00,,FEW095,0.00,VWS V14.01,2013-09-23 10:33:00,
2013-09-23 06:36:00,77.4,75.5,29.79,East,93,3.0,4.0,94,0.00,,CLR,0.00,VWS V14.01,2013-09-23 10:36:00,
2013-09-23 06:37:00,77.4,75.5,29.79,ENE,73,3.0,5.0,94,0.00,,CLR,0.00,VWS V14.01,2013-09-23 10:37:00,
2013-09-23 06:38:00,77.4,75.5,29.79,ESE,104,4.0,6.0,94,0.00,,CLR,0.00,VWS V14.01,2013-09-23 10:38:00,
2013-09-23 06:41:00,77.4,75.5,29.80,East,100,4.0,5.0,94,0.00,,CLR,0.00,VWS V14.01,2013-09-23 10:41:00,
2013-09-23 06:42:00,77.4,75.5,29.80,ESE,122,4.0,5.0,94,0.00,,CLR,0.00,VWS V14.01,2013-09-23 10:42:00,
2013-09-23 06:43:00,77.4,75.5,29.80,East,81,4.0,5.0,94,0.00,,CLR,0.00,VWS V14.01,2013-09-23 10:43:00,
2013-09-23 06:44:00,77.4,75.5,29.80,SE,126,2.0,6.0,94,0.00,,CLR,0.00,VWS V14.01,2013-09-23 10:44:00,
2013-09-23 06:46:00,77.4,75.5,29.80,East,98,2.0,2.0,94,0.00,,CLR,0.00,VWS V14.01,2013-09-23 10:46:00,
2013-09-23 06:47:00,77.4,75.5,29.80,East,100,2.0,2.0,94,0.00,,CLR,0.00,VWS V14.01,2013-09-23 10:47:00,
2013-09-23 06:48:00,77.4,75.5,29.80,ENE,71,4.0,5.0,94,0.00,,CLR,0.00,VWS V14.01,2013-09-23 10:48:00,
2013-09-23 06:49:00,77.3,75.4,29.80,East,79,4.0,5.0,94,0.00,,CLR,0.00,VWS V14.01,2013-09-23 10:49:00,
2013-09-23 06:51:00,77.3,75.4,29.80,East,85,2.0,4.0,94,0.00,,BKN090,0.00,VWS V14.01,2013-09-23 10:51:00,
2013-09-23 06:52:00,77.3,75.4,29.80,ESE,103,1.0,4.0,94,0.00,,BKN090,0.00,VWS V14.01,2013-09-23 10:52:00,
2013-09-23 06:54:00,77.3,75.4,29.80,East,101,1.0,5.0,94,0.00,,BKN090,0.00,VWS V14.01,2013-09-23 10:54:00,
2013-09-23 06:56:00,77.3,75.4,29.80,East,87,4.0,4.0,94,0.00,,BKN090,0.00,VWS V14.01,2013-09-23 10:56:00,
2013-09-23 06:57:00,77.3,75.4,29.80,East,84,2.0,5.0,94,0.00,,BKN090,0.00,VWS V14.01,2013-09-23 10:57:00,
2013-09-23 06:59:00,77.3,75.4,29.80,East,101,4.0,6.0,94,0.00,,BKN090,0.00,VWS V14.01,2013-09-23 10:59:00,
2013-09-23 07:01:00,77.3,75.4,29.80,East,83,4.0,5.0,94,0.00,,BKN090,0.00,VWS V14.01,2013-09-23 11:01:00,
2013-09-23 07:02:00,77.3,75.4,29.80,East,88,3.0,5.0,94,0.00,,BKN090,0.00,VWS V14.01,2013-09-23 11:02:00,
2013-09-23 07:04:00,77.3,75.4,29.80,East,99,1.0,5.0,94,0.00,,BKN090,0.00,VWS V14.01,2013-09-23 11:04:00,
2013-09-23 07:07:00,77.3,75.4,29.80,East,92,1.0,3.0,94,0.00,,BKN090,0.00,VWS V14.01,2013-09-23 11:07:00,
2013-09-23 07:09:00,77.3,75.4,29.80,East,84,1.0,4.0,94,0.00,,BKN090,0.00,VWS V14.01,2013-09-23 11:09:00,
2013-09-23 07:10:00,77.3,75.4,29.80,East,85,1.0,4.0,94,0.00,,BKN090,0.00,VWS V14.01,2013-09-23 11:10:00,
2013-09-23 07:12:00,77.3,75.4,29.80,East,86,3.0,4.0,94,0.00,,BKN090,0.00,VWS V14.01,2013-09-23 11:12:00,
2013-09-23 07:14:00,77.3,75.4,29.80,East,85,3.0,4.0,94,0.00,,BKN090,0.00,VWS V14.01,2013-09-23 11:14:00,
2013-09-23 07:15:00,77.3,75.4,29.80,East,101,2.0,4.0,94,0.00,,BKN090,0.00,VWS V14.01,2013-09-23 11:15:00,
2013-09-23 07:17:00,77.2,75.3,29.81,East,99,1.0,3.0,94,0.00,,BKN090,0.00,VWS V14.01,2013-09-23 11:17:00,
2013-09-23 07:19:00,77.2,75.3,29.80,East,90,2.0,4.0,94,0.00,,BKN090,0.00,VWS V14.01,2013-09-23 11:19:00,
2013-09-23 07:20:00,77.2,75.3,29.81,East,90,2.0,4.0,94,0.00,,BKN090,0.00,VWS V14.01,2013-09-23 11:20:00,
2013-09-23 07:22:00,77.1,75.2,29.81,East,82,3.0,4.0,94,0.00,,BKN090,0.00,VWS V14.01,2013-09-23 11:22:00,
2013-09-23 07:24:00,77.1,75.2,29.81,East,84,1.0,4.0,94,0.00,,BKN090,0.00,VWS V14.01,2013-09-23 11:24:00,
2013-09-23 07:25:00,77.1,75.2,29.81,ENE,73,3.0,5.0,94,0.00,,BKN090,0.00,VWS V14.01,2013-09-23 11:25:00,
2013-09-23 07:27:00,77.1,75.2,29.81,East,97,2.0,4.0,94,0.00,,BKN090,0.00,VWS V14.01,2013-09-23 11:27:00,
2013-09-23 07:29:00,77.1,75.2,29.81,ENE,78,4.0,4.0,94,0.00,,BKN090,0.00,VWS V14.01,2013-09-23 11:29:00,
2013-09-23 07:30:00,77.1,75.2,29.81,East,81,3.0,4.0,94,0.00,,BKN090,0.00,VWS V14.01,2013-09-23 11:30:00,
2013-09-23 07:32:00,77.1,75.2,29.81,ENE,78,4.0,4.0,94,0.00,,BKN090,0.00,VWS V14.01,2013-09-23 11:32:00,
2013-09-23 07:34:00,77.1,75.2,29.81,East,84,1.0,4.0,94,0.00,,BKN090,0.00,VWS V14.01,2013-09-23 11:34:00,
2013-09-23 07:35:00,77.1,75.2,29.81,East,82,0.0,4.0,94,0.00,,BKN090,0.00,VWS V14.01,2013-09-23 11:35:00,
2013-09-23 07:36:00,77.1,75.2,29.81,East,82,0.0,4.0,94,0.00,,BKN090,0.00,VWS V14.01,2013-09-23 11:36:00,
2013-09-23 07:37:00,77.1,75.2,29.80,ENE,74,3.0,5.0,94,0.00,,BKN090,0.00,VWS V14.01,2013-09-23 11:37:00,
2013-09-23 07:39:00,77.1,75.2,29.80,East,93,2.0,5.0,94,0.00,,BKN090,0.00,VWS V14.01,2013-09-23 11:39:00,
2013-09-23 07:41:00,77.1,75.2,29.80,East,90,3.0,6.0,94,0.00,,BKN090,0.00,VWS V14.01,2013-09-23 11:41:00,
2013-09-23 07:43:00,77.1,75.2,29.80,ENE,77,3.0,5.0,94,0.00,,BKN090,0.00,VWS V14.01,2013-09-23 11:43:00,
2013-09-23 07:44:00,77.1,75.2,29.81,ESE,105,2.0,5.0,94,0.01,,BKN090,0.01,VWS V14.01,2013-09-23 11:44:00,
2013-09-23 07:47:00,77.1,75.2,29.81,ESE,121,1.0,4.0,94,0.01,,BKN090,0.01,VWS V14.01,2013-09-23 11:47:00,
2013-09-23 07:48:00,77.1,75.2,29.81,East,88,2.0,4.0,94,0.01,,BKN090,0.01,VWS V14.01,2013-09-23 11:48:00,
2013-09-23 07:50:00,77.1,75.2,29.81,ENE,70,4.0,5.0,94,0.01,,BKN090,0.01,VWS V14.01,2013-09-23 11:50:00,
2013-09-23 07:52:00,77.2,75.3,29.81,East,101,1.0,6.0,94,0.01,,BKN090,0.01,VWS V14.01,2013-09-23 11:52:00,
2013-09-23 07:53:00,77.2,75.3,29.82,East,90,5.0,6.0,94,0.01,,BKN090,0.01,VWS V14.01,2013-09-23 11:53:00,
2013-09-23 07:55:00,77.2,75.3,29.81,East,86,3.0,7.0,94,0.01,,BKN090,0.01,VWS V14.01,2013-09-23 11:55:00,
2013-09-23 07:57:00,77.2,75.3,29.82,ESE,106,2.0,3.0,94,0.01,,BKN090,0.01,VWS V14.01,2013-09-23 11:57:00,
2013-09-23 07:58:00,77.2,75.3,29.82,SSE,165,3.0,6.0,94,0.01,,BKN090,0.01,VWS V14.01,2013-09-23 11:58:00,
2013-09-23 08:02:00,77.3,75.4,29.82,SE,134,6.0,8.0,94,0.01,,BKN090,0.01,VWS V14.01,2013-09-23 12:02:00,
2013-09-23 08:03:00,77.1,74.9,29.82,SSW,197,6.0,14.0,93,0.03,,BKN090,0.03,VWS V14.01,2013-09-23 12:03:00,
2013-09-23 08:07:00,76.5,74.0,29.82,SSW,211,2.0,5.0,92,0.08,,BKN090,0.08,VWS V14.01,2013-09-23 12:07:00,
2013-09-23 08:08:00,76.2,73.7,29.82,South,169,1.0,6.0,92,0.12,,BKN090,0.12,VWS V14.01,2013-09-23 12:08:00,
2013-09-23 08:12:00,75.9,73.4,29.82,SE,129,1.0,2.0,92,0.16,,BKN090,0.16,VWS V14.01,2013-09-23 12:12:00,
2013-09-23 08:13:00,75.8,73.3,29.82,SE,129,1.0,2.0,92,0.16,,BKN090,0.16,VWS V14.01,2013-09-23 12:13:00,
2013-09-23 08:17:00,75.7,73.5,29.81,ESE,121,2.0,3.0,93,0.16,,BKN090,0.16,VWS V14.01,2013-09-23 12:17:00,
2013-09-23 08:18:00,75.7,73.5,29.81,ESE,112,1.0,3.0,93,0.16,,BKN090,0.16,VWS V14.01,2013-09-23 12:18:00,
2013-09-23 08:19:00,75.7,73.5,29.81,ESE,108,2.0,3.0,93,0.16,,BKN090,0.16,VWS V14.01,2013-09-23 12:19:00,
2013-09-23 08:22:00,75.7,73.5,29.82,ESE,112,2.0,3.0,93,0.16,,BKN090,0.16,VWS V14.01,2013-09-23 12:22:00,
2013-09-23 08:23:00,75.7,73.5,29.82,ESE,111,2.0,3.0,93,0.16,,BKN090,0.16,VWS V14.01,2013-09-23 12:23:00,
2013-09-23 08:24:00,75.7,73.5,29.82,ESE,110,2.0,3.0,93,0.16,,BKN090,0.16,VWS V14.01,2013-09-23 12:24:00,
2013-09-23 08:27:00,75.8,73.9,29.82,ESE,114,2.0,4.0,94,0.16,,BKN090,0.16,VWS V14.01,2013-09-23 12:27:00,
2013-09-23 08:28:00,75.8,73.9,29.82,ESE,105,2.0,4.0,94,0.16,,BKN090,0.16,VWS V14.01,2013-09-23 12:28:00,
2013-09-23 08:29:00,75.9,74.1,29.82,ESE,108,0.0,4.0,94,0.16,,BKN090,0.16,VWS V14.01,2013-09-23 12:29:00,
2013-09-23 08:32:00,76.0,74.2,29.82,East,82,1.0,2.0,94,0.16,,BKN090,0.16,VWS V14.01,2013-09-23 12:32:00,
2013-09-23 08:33:00,76.0,74.2,29.82,ESE,103,2.0,3.0,94,0.16,,BKN090,0.16,VWS V14.01,2013-09-23 12:33:00,
2013-09-23 08:34:00,76.0,74.2,29.82,East,91,3.0,3.0,94,0.16,,BKN090,0.16,VWS V14.01,2013-09-23 12:34:00,
2013-09-23 08:35:00,76.1,74.2,29.82,ESE,108,1.0,4.0,94,0.16,,BKN090,0.16,VWS V14.01,2013-09-23 12:35:00,
2013-09-23 08:37:00,76.2,74.3,29.82,East,97,5.0,5.0,94,0.16,,BKN090,0.16,VWS V14.01,2013-09-23 12:37:00,
2013-09-23 08:38:00,76.3,74.4,29.82,SE,127,2.0,5.0,94,0.16,,BKN090,0.16,VWS V14.01,2013-09-23 12:38:00,
2013-09-23 08:39:00,76.3,74.4,29.82,ENE,73,2.0,5.0,94,0.16,,BKN090,0.16,VWS V14.01,2013-09-23 12:39:00,
2013-09-23 08:40:00,76.3,74.4,29.82,ENE,77,1.0,5.0,94,0.16,,BKN090,0.16,VWS V14.01,2013-09-23 12:40:00,
2013-09-23 08:42:00,76.5,74.7,29.83,ESE,114,2.0,4.0,94,0.16,,BKN090,0.16,VWS V14.01,2013-09-23 12:42:00,
2013-09-23 08:43:00,76.5,74.7,29.82,East,100,3.0,5.0,94,0.16,,BKN090,0.16,VWS V14.01,2013-09-23 12:43:00,
2013-09-23 08:44:00,76.5,74.7,29.83,East,91,2.0,5.0,94,0.16,,BKN090,0.16,VWS V14.01,2013-09-23 12:44:00,
2013-09-23 08:45:00,76.5,74.7,29.83,East,95,2.0,5.0,94,0.16,,BKN090,0.16,VWS V14.01,2013-09-23 12:45:00,
2013-09-23 08:47:00,76.6,74.8,29.83,SE,127,4.0,5.0,94,0.15,,BKN090,0.16,VWS V14.01,2013-09-23 12:47:00,
2013-09-23 08:49:00,76.7,74.8,29.83,East,90,2.0,5.0,94,0.15,,BKN090,0.16,VWS V14.01,2013-09-23 12:49:00,
2013-09-23 08:50:00,76.7,74.8,29.83,East,95,2.0,5.0,94,0.15,,BKN090,0.16,VWS V14.01,2013-09-23 12:50:00,
2013-09-23 08:52:00,76.7,74.8,29.83,NE,55,4.0,6.0,94,0.15,,-RA,0.16,VWS V14.01,2013-09-23 12:52:00,
2013-09-23 08:54:00,76.8,74.9,29.83,ESE,114,2.0,6.0,94,0.15,,-RA,0.16,VWS V14.01,2013-09-23 12:54:00,
2013-09-23 08:55:00,76.8,74.9,29.83,ESE,115,2.0,6.0,94,0.15,,-RA,0.16,VWS V14.01,2013-09-23 12:55:00,
2013-09-23 08:57:00,76.9,75.1,29.83,ESE,106,1.0,5.0,94,0.15,,-RA,0.16,VWS V14.01,2013-09-23 12:57:00,
2013-09-23 08:59:00,77.0,75.1,29.83,East,99,2.0,5.0,94,0.15,,-RA,0.16,VWS V14.01,2013-09-23 12:59:00,
2013-09-23 09:00:00,77.0,75.1,29.83,East,79,2.0,5.0,94,0.15,,-RA,0.16,VWS V14.01,2013-09-23 13:00:00,
2013-09-23 09:03:00,77.4,75.5,29.84,East,101,4.0,5.0,94,0.15,,-RA,0.16,VWS V14.01,2013-09-23 13:03:00,
2013-09-23 09:05:00,77.4,75.5,29.83,East,88,3.0,8.0,94,0.15,,-RA,0.16,VWS V14.01,2013-09-23 13:05:00,
2013-09-23 09:08:00,77.6,75.7,29.84,ENE,70,4.0,7.0,94,0.09,,-RA,0.16,VWS V14.01,2013-09-23 13:08:00,
2013-09-23 09:10:00,77.7,75.8,29.84,ENE,71,4.0,9.0,94,0.09,,-RA,0.16,VWS V14.01,2013-09-23 13:10:00,
2013-09-23 09:13:00,77.7,75.8,29.84,ENE,63,7.0,7.0,94,0.01,,-RA,0.16,VWS V14.01,2013-09-23 13:13:00,
2013-09-23 09:15:00,77.8,75.9,29.84,ENE,70,9.0,9.0,94,0.01,,-RA,0.16,VWS V14.01,2013-09-23 13:15:00,
2013-09-23 09:16:00,77.8,75.9,29.84,East,100,4.0,9.0,94,0.01,,-RA,0.16,VWS V14.01,2013-09-23 13:16:00,
2013-09-23 09:18:00,77.9,76.0,29.84,East,79,3.0,5.0,94,0.00,,-RA,0.16,VWS V14.01,2013-09-23 13:18:00,
2013-09-23 09:20:00,78.0,76.1,29.84,ESE,104,0.0,5.0,94,0.00,,-RA,0.16,VWS V14.01,2013-09-23 13:20:00,
2013-09-23 09:21:00,78.1,76.2,29.84,ENE,77,3.0,5.0,94,0.00,,-RA,0.16,VWS V14.01,2013-09-23 13:21:00,
2013-09-23 09:23:00,78.2,76.3,29.84,ENE,58,2.0,4.0,94,0.00,,-RA,0.16,VWS V14.01,2013-09-23 13:23:00,
2013-09-23 09:25:00,78.3,76.4,29.84,SE,138,4.0,6.0,94,0.00,,-RA,0.16,VWS V14.01,2013-09-23 13:25:00,
2013-09-23 09:26:00,78.4,76.5,29.84,ESE,110,2.0,6.0,94,0.00,,-RA,0.16,VWS V14.01,2013-09-23 13:26:00,
2013-09-23 09:28:00,78.5,76.6,29.84,ENE,74,2.0,5.0,94,0.00,,-RA,0.16,VWS V14.01,2013-09-23 13:28:00,
2013-09-23 09:30:00,78.6,76.7,29.84,ESE,112,4.0,6.0,94,0.00,,-RA,0.16,VWS V14.01,2013-09-23 13:30:00,
2013-09-23 09:31:00,78.7,76.8,29.84,ENE,68,1.0,6.0,94,0.00,,-RA,0.16,VWS V14.01,2013-09-23 13:31:00,
2013-09-23 09:33:00,78.8,76.9,29.84,ENE,63,4.0,4.0,94,0.00,,-RA,0.16,VWS V14.01,2013-09-23 13:33:00,
2013-09-23 09:35:00,78.9,77.0,29.84,East,88,2.0,5.0,94,0.00,,OVC095,0.16,VWS V14.01,2013-09-23 13:35:00,
2013-09-23 09:36:00,78.9,77.0,29.84,East,94,2.0,5.0,94,0.00,,OVC095,0.16,VWS V14.01,2013-09-23 13:36:00,
2013-09-23 09:38:00,79.0,77.1,29.84,East,84,3.0,6.0,94,0.00,,OVC095,0.16,VWS V14.01,2013-09-23 13:38:00,
2013-09-23 09:41:00,79.0,77.1,29.84,East,97,2.0,6.0,94,0.00,,OVC095,0.16,VWS V14.01,2013-09-23 13:41:00,
2013-09-23 09:43:00,79.1,76.9,29.84,East,79,3.0,6.0,93,0.00,,OVC095,0.16,VWS V14.01,2013-09-23 13:43:00,
2013-09-23 09:46:00,79.1,76.9,29.85,East,92,2.0,7.0,93,0.00,,OVC095,0.16,VWS V14.01,2013-09-23 13:46:00,
2013-09-23 09:48:00,79.2,77.0,29.85,East,90,4.0,6.0,93,0.00,,OVC095,0.16,VWS V14.01,2013-09-23 13:48:00,
2013-09-23 09:51:00,79.3,77.1,29.85,East,88,3.0,5.0,93,0.00,,SCT055,0.16,VWS V14.01,2013-09-23 13:51:00,
2013-09-23 09:53:00,79.3,77.1,29.85,ENE,77,2.0,5.0,93,0.00,,SCT055,0.16,VWS V14.01,2013-09-23 13:53:00,
2013-09-23 09:56:00,79.4,77.2,29.85,East,93,5.0,5.0,93,0.00,,SCT055,0.16,VWS V14.01,2013-09-23 13:56:00,
2013-09-23 09:57:00,79.5,77.3,29.85,ESE,118,4.0,5.0,93,0.00,,SCT055,0.16,VWS V14.01,2013-09-23 13:57:00,
2013-09-23 09:58:00,79.5,77.3,29.85,ENE,75,1.0,6.0,93,0.00,,SCT055,0.16,VWS V14.01,2013-09-23 13:58:00,
2013-09-23 10:01:00,79.5,77.0,29.85,ESE,115,1.0,2.0,92,0.00,,SCT055,0.16,VWS V14.01,2013-09-23 14:01:00,
2013-09-23 10:03:00,79.6,77.1,29.85,ESE,105,5.0,6.0,92,0.00,,SCT055,0.16,VWS V14.01,2013-09-23 14:03:00,
2013-09-23 10:06:00,79.7,76.8,29.85,SE,131,1.0,4.0,91,0.00,,SCT055,0.16,VWS V14.01,2013-09-23 14:06:00,
2013-09-23 10:07:00,79.7,77.2,29.85,East,87,6.0,6.0,92,0.00,,SCT055,0.16,VWS V14.01,2013-09-23 14:07:00,
2013-09-23 10:09:00,79.7,76.8,29.85,ESE,115,4.0,8.0,91,0.00,,SCT055,0.16,VWS V14.01,2013-09-23 14:09:00,
2013-09-23 10:10:00,79.7,76.5,29.85,ENE,67,4.0,8.0,90,0.00,,SCT055,0.16,VWS V14.01,2013-09-23 14:10:00,
2013-09-23 10:12:00,79.8,76.9,29.85,SE,135,3.0,6.0,91,0.00,,SCT055,0.16,VWS V14.01,2013-09-23 14:12:00,
2013-09-23 10:13:00,79.8,76.9,29.85,ESE,119,2.0,6.0,91,0.00,,SCT055,0.16,VWS V14.01,2013-09-23 14:13:00,
2013-09-23 10:14:00,79.8,76.9,29.85,ENE,67,2.0,6.0,91,0.00,,SCT055,0.16,VWS V14.01,2013-09-23 14:14:00,
2013-09-23 10:15:00,79.8,76.9,29.85,ESE,105,2.0,6.0,91,0.00,,SCT055,0.16,VWS V14.01,2013-09-23 14:15:00,
2013-09-23 10:17:00,79.8,76.9,29.85,ENE,66,3.0,4.0,91,0.00,,SCT055,0.16,VWS V14.01,2013-09-23 14:17:00,
2013-09-23 10:18:00,79.8,76.9,29.84,ESE,108,3.0,4.0,91,0.00,,SCT055,0.16,VWS V14.01,2013-09-23 14:18:00,
2013-09-23 10:19:00,79.8,76.9,29.84,ENE,75,3.0,5.0,91,0.00,,SCT055,0.16,VWS V14.01,2013-09-23 14:19:00,
2013-09-23 10:21:00,79.8,76.9,29.84,East,94,5.0,6.0,91,0.00,,SCT055,0.16,VWS V14.01,2013-09-23 14:21:00,
2013-09-23 10:22:00,79.7,76.5,29.84,ENE,60,4.0,7.0,90,0.00,,SCT055,0.16,VWS V14.01,2013-09-23 14:22:00,
2013-09-23 10:23:00,79.7,76.5,29.84,East,94,3.0,7.0,90,0.00,,SCT055,0.16,VWS V14.01,2013-09-23 14:23:00,
2013-09-23 10:24:00,79.7,76.5,29.84,East,98,5.0,7.0,90,0.00,,SCT055,0.16,VWS V14.01,2013-09-23 14:24:00,
2013-09-23 10:26:00,79.7,76.5,29.84,ESE,108,9.0,10.0,90,0.00,,SCT055,0.16,VWS V14.01,2013-09-23 14:26:00,
2013-09-23 10:27:00,79.7,76.5,29.84,ESE,115,5.0,8.0,90,0.00,,SCT055,0.16,VWS V14.01,2013-09-23 14:27:00,
2013-09-23 10:28:00,79.8,76.6,29.84,ESE,108,2.0,8.0,90,0.00,,SCT055,0.16,VWS V14.01,2013-09-23 14:28:00,
2013-09-23 10:29:00,79.8,76.6,29.84,ESE,121,3.0,8.0,90,0.00,,SCT055,0.16,VWS V14.01,2013-09-23 14:29:00,
2013-09-23 10:30:00,79.8,76.6,29.83,ENE,70,4.0,8.0,90,0.00,,SCT055,0.16,VWS V14.01,2013-09-23 14:30:00,
2013-09-23 10:31:00,79.8,76.6,29.83,ESE,122,6.0,6.0,90,0.00,,SCT055,0.16,VWS V14.01,2013-09-23 14:31:00,
2013-09-23 10:32:00,79.8,76.6,29.83,East,96,5.0,8.0,90,0.00,,SCT055,0.16,VWS V14.01,2013-09-23 14:32:00,
2013-09-23 10:33:00,79.8,76.6,29.83,East,98,6.0,11.0,90,0.00,,SCT055,0.16,VWS V14.01,2013-09-23 14:33:00,
2013-09-23 10:34:00,79.8,76.6,29.84,ESE,108,5.0,11.0,90,0.00,,SCT055,0.16,VWS V14.01,2013-09-23 14:34:00,
2013-09-23 10:35:00,79.8,76.6,29.83,ESE,103,6.0,11.0,90,0.00,,SCT055,0.16,VWS V14.01,2013-09-23 14:35:00,
2013-09-23 10:36:00,79.8,76.6,29.84,ESE,113,4.0,5.0,90,0.00,,SCT055,0.16,VWS V14.01,2013-09-23 14:36:00,
2013-09-23 10:37:00,79.8,76.6,29.84,ENE,66,4.0,6.0,90,0.00,,SCT055,0.16,VWS V14.01,2013-09-23 14:37:00,
2013-09-23 10:38:00,79.8,76.6,29.84,East,101,2.0,6.0,90,0.00,,SCT055,0.16,VWS V14.01,2013-09-23 14:38:00,
2013-09-23 10:39:00,79.8,76.6,29.84,ENE,75,5.0,6.0,90,0.00,,SCT055,0.16,VWS V14.01,2013-09-23 14:39:00,
2013-09-23 10:40:00,79.7,76.5,29.84,East,89,4.0,7.0,90,0.00,,SCT055,0.16,VWS V14.01,2013-09-23 14:40:00,
2013-09-23 10:41:00,79.7,76.5,29.84,East,97,4.0,6.0,90,0.00,,SCT055,0.16,VWS V14.01,2013-09-23 14:41:00,
2013-09-23 10:43:00,79.7,76.5,29.84,East,91,3.0,6.0,90,0.00,,SCT055,0.16,VWS V14.01,2013-09-23 14:43:00,
2013-09-23 10:44:00,79.6,76.4,29.84,ENE,59,3.0,6.0,90,0.00,,SCT055,0.16,VWS V14.01,2013-09-23 14:44:00,
2013-09-23 10:45:00,79.6,76.4,29.84,SE,139,2.0,6.0,90,0.00,,SCT055,0.16,VWS V14.01,2013-09-23 14:45:00,
2013-09-23 10:46:00,79.6,76.4,29.84,ENE,71,4.0,5.0,90,0.00,,SCT055,0.16,VWS V14.01,2013-09-23 14:46:00,
2013-09-23 10:48:00,79.5,76.3,29.84,East,83,2.0,5.0,90,0.00,,SCT055,0.16,VWS V14.01,2013-09-23 14:48:00,
2013-09-23 10:50:00,79.5,76.3,29.84,East,101,6.0,6.0,90,0.00,,SCT055,0.16,VWS V14.01,2013-09-23 14:50:00,
2013-09-23 10:53:00,79.4,76.2,29.85,South,190,2.0,3.0,90,0.00,,SCT055,0.16,VWS V14.01,2013-09-23 14:53:00,
2013-09-23 10:55:00,79.4,76.2,29.85,SE,139,0.0,3.0,90,0.00,,SCT055,0.16,VWS V14.01,2013-09-23 14:55:00,
2013-09-23 10:56:00,79.4,76.2,29.85,SSE,157,1.0,3.0,90,0.00,,SCT055,0.16,VWS V14.01,2013-09-23 14:56:00,
2013-09-23 10:58:00,79.3,76.1,29.86,SE,125,0.0,2.0,90,0.00,,SCT055,0.16,VWS V14.01,2013-09-23 14:58:00,
2013-09-23 11:00:00,79.3,76.1,29.86,SSW,195,3.0,3.0,90,0.00,,SCT055,0.16,VWS V14.01,2013-09-23 15:00:00,
2013-09-23 11:01:00,79.3,76.1,29.86,SW,231,2.0,3.0,90,0.00,,,0.16,VWS V14.01,2013-09-23 15:01:00,
2013-09-23 11:03:00,79.3,76.1,29.87,SW,226,4.0,6.0,90,0.07,,,0.23,VWS V14.01,2013-09-23 15:03:00,
2013-09-23 11:05:00,79.2,76.0,29.87,West,263,5.0,6.0,90,0.16,,,0.32,VWS V14.01,2013-09-23 15:05:00,
2013-09-23 11:06:00,79.1,75.9,29.88,WSW,257,4.0,6.0,90,0.18,,,0.34,VWS V14.01,2013-09-23 15:06:00,
2013-09-23 11:08:00,78.8,75.9,29.88,WSW,255,6.0,6.0,91,0.28,,,0.44,VWS V14.01,2013-09-23 15:08:00,
2013-09-23 11:10:00,78.4,75.6,29.88,SW,236,6.0,11.0,91,0.32,,,0.48,VWS V14.01,2013-09-23 15:10:00,
2013-09-23 11:11:00,78.2,75.4,29.88,SW,232,12.0,12.0,91,0.33,,,0.49,VWS V14.01,2013-09-23 15:11:00,
2013-09-23 11:13:00,77.6,75.1,29.88,WNW,287,5.0,12.0,92,0.40,,,0.56,VWS V14.01,2013-09-23 15:13:00,
2013-09-23 11:14:00,77.5,75.0,29.88,WSW,250,4.0,12.0,92,0.42,,,0.58,VWS V14.01,2013-09-23 15:14:00,
2013-09-23 11:16:00,77.1,74.6,29.88,SW,215,7.0,12.0,92,0.50,,,0.66,VWS V14.01,2013-09-23 15:16:00,
2013-09-23 11:18:00,76.7,74.5,29.88,West,266,7.0,12.0,93,0.61,,,0.77,VWS V14.01,2013-09-23 15:18:00,
2013-09-23 11:19:00,76.6,74.4,29.88,West,278,6.0,12.0,93,0.61,,,0.77,VWS V14.01,2013-09-23 15:19:00,
2013-09-23 11:21:00,76.4,74.2,29.88,WSW,256,1.0,12.0,93,0.65,,,0.81,VWS V14.01,2013-09-23 15:21:00,
2013-09-23 11:23:00,76.2,74.3,29.88,West,273,3.0,4.0,94,0.67,,,0.83,VWS V14.01,2013-09-23 15:23:00,
2013-09-23 11:24:00,76.2,74.3,29.88,West,269,2.0,4.0,94,0.68,,,0.84,VWS V14.01,2013-09-23 15:24:00,
2013-09-23 11:26:00,76.1,74.2,29.89,WSW,252,4.0,6.0,94,0.71,,,0.87,VWS V14.01,2013-09-23 15:26:00,
2013-09-23 11:28:00,76.1,74.2,29.89,WSW,242,4.0,5.0,94,0.75,,,0.91,VWS V14.01,2013-09-23 15:28:00,
2013-09-23 11:29:00,76.0,74.2,29.89,WSW,246,5.0,5.0,94,0.76,,,0.92,VWS V14.01,2013-09-23 15:29:00,
2013-09-23 11:31:00,76.1,74.2,29.89,West,263,10.0,12.0,94,0.87,,,1.03,VWS V14.01,2013-09-23 15:31:00,
2013-09-23 11:32:00,76.1,74.2,29.89,SW,231,8.0,19.0,94,0.92,,,1.08,VWS V14.01,2013-09-23 15:32:00,
2013-09-23 11:34:00,76.2,74.7,29.89,SW,224,5.0,19.0,95,1.06,,,1.22,VWS V14.01,2013-09-23 15:34:00,
2013-09-23 11:37:00,76.2,74.7,29.89,SE,134,8.0,8.0,95,1.28,,-RA,1.44,VWS V14.01,2013-09-23 15:37:00,
2013-09-23 11:39:00,76.1,74.6,29.89,SSW,203,3.0,3.0,95,1.36,,-RA,1.52,VWS V14.01,2013-09-23 15:39:00,
2013-09-23 11:42:00,76.0,74.5,29.89,West,262,4.0,12.0,95,1.45,, +RA,1.61,VWS V14.01,2013-09-23 15:42:00,
2013-09-23 11:44:00,75.9,74.4,29.88,SSW,193,5.0,13.0,95,1.51,, +RA,1.67,VWS V14.01,2013-09-23 15:44:00,
2013-09-23 11:47:00,75.9,74.4,29.88,SSE,148,3.0,11.0,95,1.60,, +RA,1.76,VWS V14.01,2013-09-23 15:47:00,
2013-09-23 11:48:00,75.9,74.4,29.88,South,186,6.0,11.0,95,1.61,, +RA,1.77,VWS V14.01,2013-09-23 15:48:00,
2013-09-23 11:49:00,75.9,74.4,29.88,SW,219,5.0,11.0,95,1.65,, +RA,1.81,VWS V14.01,2013-09-23 15:49:00,
2013-09-23 11:52:00,76.0,74.5,29.88,SE,136,1.0,3.0,95,1.75,,RA,1.91,VWS V14.01,2013-09-23 15:52:00,
2013-09-23 11:53:00,76.0,74.5,29.88,SSW,193,0.0,3.0,95,1.78,,RA,1.94,VWS V14.01,2013-09-23 15:53:00,
2013-09-23 11:54:00,76.0,74.5,29.87,SSW,193,0.0,3.0,95,1.80,,RA,1.96,VWS V14.01,2013-09-23 15:54:00,
2013-09-23 11:55:00,76.0,74.5,29.87,SSW,193,0.0,3.0,95,1.80,,RA,1.96,VWS V14.01,2013-09-23 15:55:00,
2013-09-23 11:57:00,76.1,74.6,29.88,SW,222,1.0,2.0,95,1.85,,RA,2.01,VWS V14.01,2013-09-23 15:57:00,
2013-09-23 11:58:00,76.1,74.6,29.88,SW,221,0.0,2.0,95,1.86,,RA,2.02,VWS V14.01,2013-09-23 15:58:00,
2013-09-23 12:00:00,76.1,74.6,29.88,SSW,210,2.0,3.0,95,1.86,,RA,2.02,VWS V14.01,2013-09-23 16:00:00,
2013-09-23 12:02:00,76.1,74.6,29.88,SSW,212,1.0,2.0,95,1.87,,-RA,2.03,VWS V14.01,2013-09-23 16:02:00,
2013-09-23 12:03:00,76.2,74.7,29.88,SSW,212,1.0,2.0,95,1.87,,-RA,2.03,VWS V14.01,2013-09-23 16:03:00,
2013-09-23 12:05:00,76.2,74.7,29.88,SE,139,1.0,2.0,95,1.88,,-RA,2.04,VWS V14.01,2013-09-23 16:05:00,
2013-09-23 12:07:00,76.2,74.7,29.88,ENE,71,3.0,3.0,95,1.73,,-RA,2.07,VWS V14.01,2013-09-23 16:07:00,
2013-09-23 12:09:00,76.2,74.7,29.88,ENE,67,2.0,4.0,95,1.73,,-RA,2.07,VWS V14.01,2013-09-23 16:09:00,
2013-09-23 12:10:00,76.3,74.8,29.88,East,80,1.0,4.0,95,1.73,,-RA,2.07,VWS V14.01,2013-09-23 16:10:00,
2013-09-23 12:12:00,76.3,74.8,29.88,SE,124,1.0,2.0,95,1.58,,-RA,2.07,VWS V14.01,2013-09-23 16:12:00,
2013-09-23 12:15:00,76.4,74.9,29.88,East,79,2.0,3.0,95,1.58,,-RA,2.07,VWS V14.01,2013-09-23 16:15:00,
2013-09-23 12:17:00,76.4,74.9,29.88,ENE,60,1.0,1.0,95,1.41,,RA,2.08,VWS V14.01,2013-09-23 16:17:00,
2013-09-23 12:20:00,76.6,75.1,29.88,ENE,75,1.0,3.0,95,1.41,,RA,2.08,VWS V14.01,2013-09-23 16:20:00,
2013-09-23 12:23:00,76.7,75.2,29.87,NNE,33,1.0,2.0,95,1.28,, +RA,2.09,VWS V14.01,2013-09-23 16:23:00,
2013-09-23 12:25:00,76.9,75.7,29.87,North,349,2.0,3.0,96,1.28,,-RA,2.09,VWS V14.01,2013-09-23 16:25:00,
2013-09-23 12:26:00,77.0,75.8,29.87,NE,47,2.0,3.0,96,1.28,,-RA,2.09,VWS V14.01,2013-09-23 16:26:00,
2013-09-23 12:28:00,77.0,75.8,29.88,East,84,2.0,2.0,96,1.22,,-RA,2.09,VWS V14.01,2013-09-23 16:28:00,
2013-09-23 12:30:00,77.0,75.5,29.88,East,86,1.0,3.0,95,1.23,,RA,2.10,VWS V14.01,2013-09-23 16:30:00,
2013-09-23 12:31:00,76.9,75.4,29.87,NNE,18,4.0,4.0,95,1.23,,RA,2.10,VWS V14.01,2013-09-23 16:31:00,
2013-09-23 12:33:00,77.0,75.5,29.87,NW,314,2.0,4.0,95,1.11,,RA,2.11,VWS V14.01,2013-09-23 16:33:00,
2013-09-23 12:35:00,77.1,75.9,29.87,NNE,16,2.0,4.0,96,1.11,,-RA,2.11,VWS V14.01,2013-09-23 16:35:00,
2013-09-23 12:36:00,77.1,75.9,29.87,NE,40,2.0,4.0,96,1.11,,-RA,2.11,VWS V14.01,2013-09-23 16:36:00,
2013-09-23 12:38:00,77.2,76.0,29.87,North,352,1.0,2.0,96,0.71,,-RA,2.11,VWS V14.01,2013-09-23 16:38:00,
2013-09-23 12:40:00,77.3,76.1,29.87,NNE,32,3.0,3.0,96,0.71,,-RA,2.11,VWS V14.01,2013-09-23 16:40:00,
2013-09-23 12:41:00,77.3,76.1,29.87,NE,36,2.0,3.0,96,0.71,,-RA,2.11,VWS V14.01,2013-09-23 16:41:00,
2013-09-23 12:43:00,77.3,75.8,29.87,ENE,68,2.0,2.0,95,0.54,,-RA,2.11,VWS V14.01,2013-09-23 16:43:00,
2013-09-23 12:46:00,77.3,75.8,29.88,NE,55,2.0,3.0,95,0.54,,-RA,2.11,VWS V14.01,2013-09-23 16:46:00,
2013-09-23 12:48:00,77.2,75.7,29.87,ENE,68,2.0,3.0,95,0.40,,-RA,2.11,VWS V14.01,2013-09-23 16:48:00,
2013-09-23 12:51:00,77.2,75.7,29.87,ENE,76,1.0,3.0,95,0.40,,-RA,2.11,VWS V14.01,2013-09-23 16:51:00,
2013-09-23 12:52:00,77.3,75.8,29.87,ENE,72,1.0,2.0,95,0.24,,-RA,2.11,VWS V14.01,2013-09-23 16:52:00,
2013-09-23 12:53:00,77.5,76.0,29.87,ENE,64,2.0,3.0,95,0.24,,-RA,2.11,VWS V14.01,2013-09-23 16:53:00,
2013-09-23 12:56:00,77.6,76.1,29.87,East,82,3.0,3.0,95,0.24,,-RA,2.11,VWS V14.01,2013-09-23 16:56:00,
2013-09-23 12:57:00,77.7,76.2,29.88,East,79,3.0,3.0,95,0.13,,-RA,2.11,VWS V14.01,2013-09-23 16:57:00,
2013-09-23 12:58:00,77.8,76.3,29.88,East,92,2.0,3.0,95,0.13,,-RA,2.11,VWS V14.01,2013-09-23 16:58:00,
2013-09-23 13:01:00,77.9,76.4,29.88,East,84,2.0,3.0,95,0.08,,-RA,2.11,VWS V14.01,2013-09-23 17:01:00,
2013-09-23 13:02:00,77.9,76.4,29.88,ENE,77,3.0,3.0,95,0.08,,-RA,2.11,VWS V14.01,2013-09-23 17:02:00,
2013-09-23 13:03:00,78.1,76.6,29.88,SE,124,2.0,3.0,95,0.08,,-RA,2.11,VWS V14.01,2013-09-23 17:03:00,
2013-09-23 13:06:00,78.3,76.8,29.88,East,88,2.0,3.0,95,0.06,,-RA,2.11,VWS V14.01,2013-09-23 17:06:00,
2013-09-23 13:07:00,78.4,76.8,29.88,ESE,103,0.0,3.0,95,0.06,,-RA,2.11,VWS V14.01,2013-09-23 17:07:00,
2013-09-23 13:08:00,78.5,76.9,29.88,East,97,0.0,3.0,95,0.06,,-RA,2.11,VWS V14.01,2013-09-23 17:08:00,
2013-09-23 13:11:00,78.5,76.9,29.88,ESE,108,8.0,11.0,95,0.04,,-RA,2.11,VWS V14.01,2013-09-23 17:11:00,
2013-09-23 13:13:00,78.4,76.5,29.88,SE,142,7.0,11.0,94,0.04,,-RA,2.11,VWS V14.01,2013-09-23 17:13:00,
2013-09-23 13:16:00,78.3,76.4,29.87,South,178,7.0,9.0,94,0.03,,-RA,2.11,VWS V14.01,2013-09-23 17:16:00,
2013-09-23 13:17:00,78.3,76.1,29.87,SSW,200,4.0,9.0,93,0.03,,-RA,2.11,VWS V14.01,2013-09-23 17:17:00,
2013-09-23 13:18:00,78.5,76.3,29.88,SE,143,4.0,9.0,93,0.03,,-RA,2.11,VWS V14.01,2013-09-23 17:18:00,
2013-09-23 13:19:00,78.5,76.6,29.88,SE,143,7.0,9.0,94,0.03,,-RA,2.11,VWS V14.01,2013-09-23 17:19:00,
2013-09-23 13:21:00,78.7,76.5,29.88,SE,134,5.0,5.0,93,0.03,,-RA,2.11,VWS V14.01,2013-09-23 17:21:00,
2013-09-23 13:22:00,78.7,76.5,29.88,ESE,109,8.0,8.0,93,0.03,,-RA,2.11,VWS V14.01,2013-09-23 17:22:00,
2013-09-23 13:24:00,78.8,76.6,29.87,ESE,115,3.0,8.0,93,0.03,,-RA,2.11,VWS V14.01,2013-09-23 17:24:00,
2013-09-23 13:26:00,78.8,76.3,29.87,ESE,119,4.0,7.0,92,0.02,,-RA,2.11,VWS V14.01,2013-09-23 17:26:00,
2013-09-23 13:27:00,78.8,76.3,29.87,ESE,106,5.0,7.0,92,0.02,,-RA,2.11,VWS V14.01,2013-09-23 17:27:00,
2013-09-23 13:29:00,78.7,75.9,29.86,ESE,113,5.0,7.0,91,0.02,,-RA,2.11,VWS V14.01,2013-09-23 17:29:00,
2013-09-23 13:31:00,78.8,75.9,29.86,East,90,7.0,8.0,91,0.01,,-RA,2.11,VWS V14.01,2013-09-23 17:31:00,
2013-09-23 13:32:00,78.8,75.9,29.86,SE,133,6.0,9.0,91,0.01,,-RA,2.11,VWS V14.01,2013-09-23 17:32:00,
2013-09-23 13:34:00,78.8,75.9,29.86,SE,141,4.0,9.0,91,0.01,,-RA,2.11,VWS V14.01,2013-09-23 17:34:00,
2013-09-23 13:36:00,79.0,76.2,29.86,SE,131,4.0,6.0,91,0.00,,-RA,2.11,VWS V14.01,2013-09-23 17:36:00,
2013-09-23 13:37:00,79.0,76.2,29.86,ESE,113,4.0,6.0,91,0.00,,-RA,2.11,VWS V14.01,2013-09-23 17:37:00,
2013-09-23 13:39:00,79.1,76.2,29.85,East,84,3.0,7.0,91,0.00,,-RA,2.11,VWS V14.01,2013-09-23 17:39:00,
2013-09-23 13:41:00,79.1,75.9,29.85,East,87,7.0,9.0,90,0.00,,-RA,2.11,VWS V14.01,2013-09-23 17:41:00,
2013-09-23 13:42:00,79.1,75.9,29.85,ESE,108,3.0,9.0,90,0.00,,-RA,2.11,VWS V14.01,2013-09-23 17:42:00,
2013-09-23 13:44:00,79.1,75.9,29.85,East,80,3.0,9.0,90,0.00,,-RA,2.11,VWS V14.01,2013-09-23 17:44:00,
2013-09-23 13:47:00,79.3,76.1,29.85,SE,138,5.0,8.0,90,0.00,,SCT090,2.11,VWS V14.01,2013-09-23 17:47:00,
2013-09-23 13:49:00,79.4,75.9,29.85,SE,125,1.0,8.0,89,0.00,,SCT090,2.11,VWS V14.01,2013-09-23 17:49:00,
2013-09-23 13:52:00,79.7,76.5,29.85,ESE,106,4.0,6.0,90,0.00,,SCT090,2.11,VWS V14.01,2013-09-23 17:52:00,
2013-09-23 13:54:00,80.0,76.5,29.85,SE,124,2.0,6.0,89,0.00,,SCT090,2.11,VWS V14.01,2013-09-23 17:54:00,
2013-09-23 13:55:00,80.0,76.5,29.85,ESE,121,3.0,6.0,89,0.00,,SCT090,2.11,VWS V14.01,2013-09-23 17:55:00,
2013-09-23 13:57:00,80.2,76.7,29.85,South,173,3.0,3.0,89,0.00,,SCT090,2.11,VWS V14.01,2013-09-23 17:57:00,
2013-09-23 13:59:00,80.4,76.5,29.85,East,87,1.0,5.0,88,0.00,,SCT090,2.11,VWS V14.01,2013-09-23 17:59:00,
2013-09-23 14:00:00,80.5,76.6,29.85,SE,138,3.0,5.0,88,0.00,,SCT090,2.11,VWS V14.01,2013-09-23 18:00:00,
2013-09-23 14:02:00,80.6,76.7,29.85,ESE,119,6.0,6.0,88,0.00,,SCT014,2.11,VWS V14.01,2013-09-23 18:02:00,
2013-09-23 14:04:00,80.7,76.8,29.84,ENE,64,4.0,6.0,88,0.00,,SCT014,2.11,VWS V14.01,2013-09-23 18:04:00,
2013-09-23 14:05:00,80.7,76.8,29.85,SE,129,6.0,6.0,88,0.00,,SCT014,2.11,VWS V14.01,2013-09-23 18:05:00,
2013-09-23 14:07:00,80.8,76.6,29.84,SSE,150,4.0,4.0,87,0.00,,SCT014,2.11,VWS V14.01,2013-09-23 18:07:00,
2013-09-23 14:09:00,80.8,76.6,29.84,SE,129,5.0,6.0,87,0.00,,SCT014,2.11,VWS V14.01,2013-09-23 18:09:00,
2013-09-23 14:10:00,80.8,76.6,29.84,ENE,78,2.0,6.0,87,0.00,,SCT014,2.11,VWS V14.01,2013-09-23 18:10:00,
2013-09-23 14:12:00,80.8,76.6,29.84,SE,146,4.0,7.0,87,0.00,,SCT014,2.11,VWS V14.01,2013-09-23 18:12:00,
2013-09-23 14:14:00,80.7,76.5,29.85,South,184,5.0,7.0,87,0.00,,SCT014,2.11,VWS V14.01,2013-09-23 18:14:00,
2013-09-23 14:15:00,80.7,76.5,29.85,SSW,209,2.0,7.0,87,0.00,,SCT014,2.11,VWS V14.01,2013-09-23 18:15:00,
2013-09-23 14:17:00,80.7,76.1,29.85,SW,214,4.0,6.0,86,0.00,,SCT014,2.11,VWS V14.01,2013-09-23 18:17:00,
2013-09-23 14:18:00,80.7,76.5,29.85,South,170,4.0,6.0,87,0.00,,SCT014,2.11,VWS V14.01,2013-09-23 18:18:00,
2013-09-23 14:19:00,80.6,76.4,29.85,SW,226,5.0,6.0,87,0.00,,SCT014,2.11,VWS V14.01,2013-09-23 18:19:00,
2013-09-23 14:20:00,80.5,76.3,29.85,SSE,148,3.0,6.0,87,0.00,,SCT014,2.11,VWS V14.01,2013-09-23 18:20:00,
2013-09-23 14:21:00,80.5,76.3,29.85,SSE,148,3.0,6.0,87,0.00,,SCT014,2.11,VWS V14.01,2013-09-23 18:21:00,
2013-09-23 14:22:00,80.4,76.2,29.85,South,173,2.0,3.0,87,0.00,,SCT014,2.11,VWS V14.01,2013-09-23 18:22:00,
2013-09-23 14:23:00,80.4,76.2,29.85,SSW,196,1.0,3.0,87,0.00,,SCT014,2.11,VWS V14.01,2013-09-23 18:23:00,
2013-09-23 14:25:00,80.4,76.2,29.85,South,169,1.0,4.0,87,0.00,,SCT014,2.11,VWS V14.01,2013-09-23 18:25:00,
2013-09-23 14:26:00,80.3,76.1,29.85,SW,221,1.0,4.0,87,0.00,,SCT014,2.11,VWS V14.01,2013-09-23 18:26:00,
2013-09-23 14:28:00,80.2,76.0,29.85,SW,217,1.0,3.0,87,0.00,,SCT014,2.11,VWS V14.01,2013-09-23 18:28:00,
2013-09-23 14:30:00,80.1,76.2,29.85,SW,220,0.0,3.0,88,0.00,,SCT014,2.11,VWS V14.01,2013-09-23 18:30:00,
2013-09-23 14:31:00,80.1,76.2,29.85,West,263,1.0,3.0,88,0.00,,SCT014,2.11,VWS V14.01,2013-09-23 18:31:00,
2013-09-23 14:33:00,80.0,76.1,29.85,WSW,253,1.0,3.0,88,0.00,,SCT014,2.11,VWS V14.01,2013-09-23 18:33:00,
2013-09-23 14:35:00,80.0,76.1,29.85,WSW,256,2.0,4.0,88,0.00,,SCT014,2.11,VWS V14.01,2013-09-23 18:35:00,
2013-09-23 14:36:00,79.9,76.0,29.85,WSW,250,1.0,2.0,88,0.00,,SCT014,2.11,VWS V14.01,2013-09-23 18:36:00,
2013-09-23 14:38:00,79.8,76.3,29.85,WSW,255,2.0,4.0,89,0.00,,SCT014,2.11,VWS V14.01,2013-09-23 18:38:00,
2013-09-23 14:40:00,79.6,76.1,29.85,WSW,245,3.0,4.0,89,0.01,,SCT014,2.12,VWS V14.01,2013-09-23 18:40:00,
2013-09-23 14:41:00,79.4,75.9,29.85,SW,236,5.0,5.0,89,0.01,,SCT014,2.12,VWS V14.01,2013-09-23 18:41:00,
2013-09-23 14:42:00,79.4,75.9,29.85,WSW,239,3.0,5.0,89,0.01,,SCT014,2.12,VWS V14.01,2013-09-23 18:42:00,
2013-09-23 14:43:00,79.3,76.1,29.86,WSW,257,5.0,5.0,90,0.03,,SCT014,2.14,VWS V14.01,2013-09-23 18:43:00,
2013-09-23 14:45:00,79.0,75.8,29.86,WSW,239,4.0,6.0,90,0.06,,SCT014,2.17,VWS V14.01,2013-09-23 18:45:00,
2013-09-23 14:46:00,78.9,75.7,29.86,SW,231,4.0,4.0,90,0.08,, +RA,2.19,VWS V14.01,2013-09-23 18:46:00,
2013-09-23 14:47:00,78.8,75.9,29.86,SW,221,4.0,4.0,91,0.10,, +RA,2.21,VWS V14.01,2013-09-23 18:47:00,
2013-09-23 14:48:00,78.6,75.8,29.86,SW,228,5.0,5.0,91,0.13,, +RA,2.24,VWS V14.01,2013-09-23 18:48:00,
2013-09-23 14:50:00,78.5,75.7,29.86,SSW,200,2.0,5.0,91,0.16,, +RA,2.27,VWS V14.01,2013-09-23 18:50:00,
2013-09-23 14:51:00,78.4,75.9,29.86,SSW,205,2.0,2.0,92,0.20,, +RA,2.31,VWS V14.01,2013-09-23 18:51:00,
2013-09-23 14:52:00,78.3,75.8,29.86,SSW,198,1.0,2.0,92,0.24,, +RA,2.35,VWS V14.01,2013-09-23 18:52:00,
2013-09-23 14:53:00,78.1,75.6,29.86,SW,233,1.0,3.0,92,0.28,, +RA,2.39,VWS V14.01,2013-09-23 18:53:00,
2013-09-23 14:54:00,78.1,75.6,29.86,SSE,153,1.0,3.0,92,0.28,, +RA,2.39,VWS V14.01,2013-09-23 18:54:00,
2013-09-23 14:55:00,77.9,75.4,29.85,South,179,1.0,3.0,92,0.34,, +RA,2.45,VWS V14.01,2013-09-23 18:55:00,
2013-09-23 14:56:00,77.8,75.3,29.86,South,170,1.0,1.0,92,0.37,, +RA,2.48,VWS V14.01,2013-09-23 18:56:00,
2013-09-23 14:57:00,77.7,75.2,29.86,SSW,205,2.0,2.0,92,0.39,, +RA,2.50,VWS V14.01,2013-09-23 18:57:00,
2013-09-23 14:58:00,77.7,75.2,29.86,SSW,212,1.0,2.0,92,0.40,, +RA,2.51,VWS V14.01,2013-09-23 18:58:00,
2013-09-23 14:59:00,77.6,75.1,29.86,SSW,213,0.0,2.0,92,0.41,, +RA,2.52,VWS V14.01,2013-09-23 18:59:00,
2013-09-23 15:00:00,77.6,75.4,29.85,WSW,245,1.0,2.0,93,0.42,, +RA,2.53,VWS V14.01,2013-09-23 19:00:00,
2013-09-23 15:01:00,77.5,75.3,29.86,SW,228,2.0,2.0,93,0.43,,-RA,2.54,VWS V14.01,2013-09-23 19:01:00,
2013-09-23 15:03:00,77.4,75.2,29.85,WSW,245,0.0,2.0,93,0.45,,-RA,2.56,VWS V14.01,2013-09-23 19:03:00,
2013-09-23 15:04:00,77.4,75.2,29.85,WSW,246,1.0,2.0,93,0.47,,-RA,2.58,VWS V14.01,2013-09-23 19:04:00,
2013-09-23 15:05:00,77.3,75.1,29.85,SW,233,1.0,2.0,93,0.48,,-RA,2.59,VWS V14.01,2013-09-23 19:05:00,
2013-09-23 15:06:00,77.3,75.1,29.85,SSW,210,1.0,2.0,93,0.50,,-RA,2.61,VWS V14.01,2013-09-23 19:06:00,
2013-09-23 15:08:00,77.3,75.1,29.85,SSW,210,0.0,2.0,93,0.51,,-RA,2.62,VWS V14.01,2013-09-23 19:08:00,
2013-09-23 15:09:00,77.2,75.0,29.85,SSW,210,0.0,2.0,93,0.52,,-RA,2.63,VWS V14.01,2013-09-23 19:09:00,
2013-09-23 15:10:00,77.1,74.9,29.86,South,191,0.0,2.0,93,0.53,,-RA,2.64,VWS V14.01,2013-09-23 19:10:00,
2013-09-23 15:12:00,77.1,74.9,29.85,SE,131,1.0,1.0,93,0.55,,-RA,2.66,VWS V14.01,2013-09-23 19:12:00,
2013-09-23 15:13:00,77.1,74.9,29.85,ESE,108,1.0,1.0,93,0.57,,-RA,2.68,VWS V14.01,2013-09-23 19:13:00,
2013-09-23 15:14:00,77.1,75.2,29.85,ESE,114,4.0,4.0,94,0.58,,-RA,2.69,VWS V14.01,2013-09-23 19:14:00,
2013-09-23 15:15:00,77.0,75.1,29.85,SSE,162,2.0,4.0,94,0.60,,-RA,2.71,VWS V14.01,2013-09-23 19:15:00,
2013-09-23 15:17:00,77.0,75.1,29.85,SSW,204,1.0,2.0,94,0.62,,-RA,2.73,VWS V14.01,2013-09-23 19:17:00,
2013-09-23 15:18:00,76.9,75.1,29.85,SW,219,0.0,2.0,94,0.63,,-RA,2.74,VWS V14.01,2013-09-23 19:18:00,
2013-09-23 15:19:00,76.9,75.1,29.85,South,174,2.0,3.0,94,0.65,,-RA,2.76,VWS V14.01,2013-09-23 19:19:00,
2013-09-23 15:21:00,76.8,74.9,29.85,SE,145,1.0,3.0,94,0.67,,-RA,2.78,VWS V14.01,2013-09-23 19:21:00,
2013-09-23 15:22:00,76.8,74.9,29.85,SE,143,0.0,1.0,94,0.69,,-RA,2.80,VWS V14.01,2013-09-23 19:22:00,
2013-09-23 15:23:00,76.8,74.9,29.85,SE,124,1.0,1.0,94,0.69,,-RA,2.80,VWS V14.01,2013-09-23 19:23:00,
2013-09-23 15:25:00,76.8,74.9,29.84,ESE,113,0.0,2.0,94,0.69,,-RA,2.80,VWS V14.01,2013-09-23 19:25:00,
2013-09-23 15:26:00,76.7,74.8,29.84,ESE,113,1.0,2.0,94,0.69,,-RA,2.80,VWS V14.01,2013-09-23 19:26:00,
2013-09-23 15:27:00,76.7,74.8,29.84,ESE,113,1.0,1.0,94,0.69,,-RA,2.80,VWS V14.01,2013-09-23 19:27:00,
2013-09-23 15:28:00,76.7,74.8,29.84,ESE,113,0.0,1.0,94,0.69,,-RA,2.80,VWS V14.01,2013-09-23 19:28:00,
2013-09-23 15:30:00,76.8,74.9,29.84,ESE,114,0.0,1.0,94,0.70,,-RA,2.81,VWS V14.01,2013-09-23 19:30:00,
2013-09-23 15:31:00,76.8,74.9,29.84,ESE,117,2.0,2.0,94,0.71,,-RA,2.82,VWS V14.01,2013-09-23 19:31:00,
2013-09-23 15:32:00,76.8,74.9,29.84,ESE,119,0.0,2.0,94,0.72,,-RA,2.83,VWS V14.01,2013-09-23 19:32:00,
2013-09-23 15:33:00,76.8,74.9,29.84,ESE,121,0.0,2.0,94,0.73,,-RA,2.84,VWS V14.01,2013-09-23 19:33:00,
2013-09-23 15:35:00,76.8,74.9,29.85,ESE,121,0.0,2.0,94,0.73,,-RA,2.84,VWS V14.01,2013-09-23 19:35:00,
2013-09-23 15:36:00,76.8,74.9,29.84,ESE,122,0.0,0.0,94,0.73,,-RA,2.84,VWS V14.01,2013-09-23 19:36:00,
2013-09-23 15:37:00,76.9,75.1,29.84,ESE,121,0.0,0.0,94,0.73,,-RA,2.84,VWS V14.01,2013-09-23 19:37:00,
2013-09-23 15:39:00,76.9,75.1,29.84,ESE,122,0.0,0.0,94,0.73,,-RA,2.84,VWS V14.01,2013-09-23 19:39:00,
2013-09-23 15:40:00,76.9,75.1,29.85,ESE,120,0.0,0.0,94,0.74,,-RA,2.85,VWS V14.01,2013-09-23 19:40:00,
2013-09-23 15:41:00,76.8,74.9,29.85,ESE,121,0.0,0.0,94,0.73,,-RA,2.85,VWS V14.01,2013-09-23 19:41:00,
2013-09-23 15:42:00,76.9,75.1,29.85,SE,134,0.0,1.0,94,0.73,,-RA,2.85,VWS V14.01,2013-09-23 19:42:00,
2013-09-23 15:45:00,76.8,74.9,29.85,SSW,202,0.0,1.0,94,0.73,,-RA,2.85,VWS V14.01,2013-09-23 19:45:00,
2013-09-23 15:55:00,76.9,75.4,29.84,ENE,68,1.0,2.0,95,0.55,,-RA,2.85,VWS V14.01,2013-09-23 19:55:00,
2013-09-23 16:00:00,77.0,75.5,29.84,ENE,68,2.0,3.0,95,0.39,,-RA,2.85,VWS V14.01,2013-09-23 20:00:00,
2013-09-23 16:05:00,77.1,75.6,29.84,East,90,2.0,4.0,95,0.33,,-RA,2.86,VWS V14.01,2013-09-23 20:05:00,
2013-09-23 16:10:00,77.2,75.7,29.84,East,90,2.0,4.0,95,0.27,,-RA,2.86,VWS V14.01,2013-09-23 20:10:00,
2013-09-23 16:20:00,77.3,75.8,29.84,East,96,3.0,3.0,95,0.22,,-RA,2.87,VWS V14.01,2013-09-23 20:20:00,
2013-09-23 16:25:00,77.4,75.9,29.84,ENE,78,5.0,5.0,95,0.09,,-RA,2.87,VWS V14.01,2013-09-23 20:25:00,
2013-09-23 16:30:00,77.5,76.0,29.84,East,79,4.0,4.0,95,0.07,,-RA,2.87,VWS V14.01,2013-09-23 20:30:00,
2013-09-23 16:31:00,77.5,76.0,29.84,ENE,76,5.0,5.0,95,0.07,,-RA,2.87,VWS V14.01,2013-09-23 20:31:00,
2013-09-23 16:35:00,77.6,76.1,29.84,ESE,105,3.0,6.0,95,0.05,,-RA,2.87,VWS V14.01,2013-09-23 20:35:00,
2013-09-23 16:36:00,77.6,76.1,29.84,ENE,60,3.0,6.0,95,0.05,,-RA,2.87,VWS V14.01,2013-09-23 20:36:00,
2013-09-23 16:40:00,77.6,76.1,29.84,East,95,4.0,4.0,95,0.03,,-RA,2.87,VWS V14.01,2013-09-23 20:40:00,
2013-09-23 16:41:00,77.6,76.1,29.85,ESE,104,3.0,5.0,95,0.02,,-RA,2.87,VWS V14.01,2013-09-23 20:41:00,
2013-09-23 16:45:00,77.6,76.1,29.84,East,89,3.0,7.0,95,0.02,,-RA,2.87,VWS V14.01,2013-09-23 20:45:00,
2013-09-23 16:46:00,77.6,76.1,29.84,ESE,106,5.0,5.0,95,0.02,,-RA,2.87,VWS V14.01,2013-09-23 20:46:00,
2013-09-23 16:50:00,77.7,76.2,29.84,ENE,75,3.0,6.0,95,0.02,,-RA,2.87,VWS V14.01,2013-09-23 20:50:00,
2013-09-23 16:51:00,77.7,76.2,29.84,East,84,2.0,5.0,95,0.02,,-RA,2.87,VWS V14.01,2013-09-23 20:51:00,
2013-09-23 16:52:00,77.6,76.1,29.84,ENE,63,3.0,5.0,95,0.02,,-RA,2.87,VWS V14.01,2013-09-23 20:52:00,
2013-09-23 16:55:00,77.6,76.1,29.85,ENE,71,3.0,6.0,95,0.02,,-RA,2.87,VWS V14.01,2013-09-23 20:55:00,
2013-09-23 16:56:00,77.6,76.1,29.85,ESE,112,3.0,3.0,95,0.02,,-RA,2.87,VWS V14.01,2013-09-23 20:56:00,
2013-09-23 16:57:00,77.7,76.2,29.85,East,88,2.0,3.0,95,0.02,,-RA,2.87,VWS V14.01,2013-09-23 20:57:00,
2013-09-23 17:00:00,77.6,75.7,29.85,ENE,77,5.0,7.0,94,0.02,,BKN110,2.87,VWS V14.01,2013-09-23 21:00:00,
2013-09-23 17:01:00,77.6,75.7,29.85,ENE,70,5.0,7.0,94,0.02,,BKN110,2.87,VWS V14.01,2013-09-23 21:01:00,
2013-09-23 17:02:00,77.6,75.7,29.85,ENE,65,3.0,6.0,94,0.02,,BKN110,2.87,VWS V14.01,2013-09-23 21:02:00,
2013-09-23 17:05:00,77.5,75.6,29.85,ENE,78,3.0,7.0,94,0.02,,BKN110,2.87,VWS V14.01,2013-09-23 21:05:00,
2013-09-23 17:06:00,77.6,75.7,29.84,ENE,65,3.0,3.0,94,0.01,,BKN110,2.87,VWS V14.01,2013-09-23 21:06:00,
2013-09-23 17:07:00,77.5,75.6,29.84,East,79,4.0,4.0,94,0.01,,BKN110,2.87,VWS V14.01,2013-09-23 21:07:00,
2013-09-23 17:08:00,77.5,75.6,29.85,ESE,117,3.0,6.0,94,0.01,,BKN110,2.87,VWS V14.01,2013-09-23 21:08:00,
2013-09-23 17:10:00,77.5,76.0,29.85,East,79,2.0,7.0,95,0.01,,BKN110,2.87,VWS V14.01,2013-09-23 21:10:00,
2013-09-23 17:11:00,77.5,76.0,29.85,East,88,4.0,6.0,95,0.01,,BKN110,2.87,VWS V14.01,2013-09-23 21:11:00,
2013-09-23 17:13:00,77.5,76.0,29.85,ENE,66,3.0,6.0,95,0.01,,BKN110,2.87,VWS V14.01,2013-09-23 21:13:00,
2013-09-23 17:15:00,77.6,76.1,29.85,East,96,1.0,6.0,95,0.01,,BKN110,2.87,VWS V14.01,2013-09-23 21:15:00,
2013-09-23 17:16:00,77.5,76.0,29.85,ENE,78,1.0,2.0,95,0.00,,BKN110,2.87,VWS V14.01,2013-09-23 21:16:00,
2013-09-23 17:18:00,77.6,76.1,29.85,East,100,3.0,3.0,95,0.00,,BKN110,2.87,VWS V14.01,2013-09-23 21:18:00,
2013-09-23 17:20:00,77.6,76.1,29.85,ESE,117,2.0,4.0,95,0.00,,BKN110,2.87,VWS V14.01,2013-09-23 21:20:00,
2013-09-23 17:21:00,77.6,76.1,29.85,ESE,111,2.0,2.0,95,0.00,,BKN110,2.87,VWS V14.01,2013-09-23 21:21:00,
2013-09-23 17:23:00,77.6,76.1,29.85,ESE,108,2.0,3.0,95,0.00,,BKN110,2.87,VWS V14.01,2013-09-23 21:23:00,
2013-09-23 17:25:00,77.5,76.0,29.85,SE,129,4.0,5.0,95,0.00,,BKN110,2.87,VWS V14.01,2013-09-23 21:25:00,
2013-09-23 17:26:00,77.5,76.0,29.85,East,84,4.0,4.0,95,0.00,,BKN110,2.87,VWS V14.01,2013-09-23 21:26:00,
2013-09-23 17:27:00,77.5,76.0,29.85,East,101,4.0,4.0,95,0.00,,BKN110,2.87,VWS V14.01,2013-09-23 21:27:00,
2013-09-23 17:28:00,77.5,76.0,29.85,East,95,3.0,6.0,95,0.00,,BKN110,2.87,VWS V14.01,2013-09-23 21:28:00,
2013-09-23 17:29:00,77.5,76.0,29.85,East,89,2.0,6.0,95,0.00,,BKN110,2.87,VWS V14.01,2013-09-23 21:29:00,
2013-09-23 17:30:00,77.5,76.0,29.85,NE,55,4.0,6.0,95,0.00,,BKN110,2.87,VWS V14.01,2013-09-23 21:30:00,
2013-09-23 17:31:00,77.4,75.9,29.85,ESE,108,5.0,5.0,95,0.00,,BKN110,2.87,VWS V14.01,2013-09-23 21:31:00,
2013-09-23 17:32:00,77.4,75.9,29.85,ESE,113,3.0,6.0,95,0.00,,BKN110,2.87,VWS V14.01,2013-09-23 21:32:00,
2013-09-23 17:33:00,77.4,75.5,29.85,ESE,114,3.0,6.0,94,0.00,,BKN110,2.87,VWS V14.01,2013-09-23 21:33:00,
2013-09-23 17:34:00,77.4,75.5,29.85,SE,134,2.0,6.0,94,0.00,,BKN110,2.87,VWS V14.01,2013-09-23 21:34:00,
2013-09-23 17:35:00,77.4,75.5,29.86,SE,137,2.0,6.0,94,0.00,,BKN110,2.87,VWS V14.01,2013-09-23 21:35:00,
2013-09-23 17:36:00,77.4,75.5,29.86,ESE,111,3.0,4.0,94,0.00,,BKN110,2.87,VWS V14.01,2013-09-23 21:36:00,
2013-09-23 17:37:00,77.3,75.4,29.86,East,95,2.0,4.0,94,0.00,,BKN110,2.87,VWS V14.01,2013-09-23 21:37:00,
2013-09-23 17:38:00,77.3,75.4,29.86,East,96,1.0,5.0,94,0.00,,BKN110,2.87,VWS V14.01,2013-09-23 21:38:00,
2013-09-23 17:39:00,77.3,75.4,29.86,East,96,3.0,5.0,94,0.00,,BKN110,2.87,VWS V14.01,2013-09-23 21:39:00,
2013-09-23 17:41:00,77.3,75.4,29.86,ENE,72,3.0,5.0,94,0.00,,BKN110,2.87,VWS V14.01,2013-09-23 21:41:00,
2013-09-23 17:42:00,77.3,75.4,29.86,East,90,3.0,3.0,94,0.00,,BKN110,2.87,VWS V14.01,2013-09-23 21:42:00,
2013-09-23 17:43:00,77.3,75.4,29.86,SE,129,4.0,5.0,94,0.00,,BKN110,2.87,VWS V14.01,2013-09-23 21:43:00,
2013-09-23 17:44:00,77.3,75.4,29.86,ESE,105,4.0,5.0,94,0.00,,BKN110,2.87,VWS V14.01,2013-09-23 21:44:00,
2013-09-23 17:46:00,77.2,75.3,29.86,ESE,103,6.0,7.0,94,0.00,,BKN110,2.87,VWS V14.01,2013-09-23 21:46:00,
2013-09-23 17:47:00,77.2,75.3,29.86,ENE,78,3.0,7.0,94,0.00,,BKN110,2.87,VWS V14.01,2013-09-23 21:47:00,
2013-09-23 17:49:00,77.2,75.3,29.86,ESE,106,6.0,7.0,94,0.00,,BKN110,2.87,VWS V14.01,2013-09-23 21:49:00,
2013-09-23 17:51:00,77.2,75.3,29.86,East,95,3.0,3.0,94,0.00,,BKN110,2.87,VWS V14.01,2013-09-23 21:51:00,
2013-09-23 17:52:00,77.2,75.3,29.86,ENE,78,5.0,6.0,94,0.00,,BKN110,2.87,VWS V14.01,2013-09-23 21:52:00,
2013-09-23 17:54:00,77.2,75.3,29.86,ENE,75,2.0,6.0,94,0.01,,BKN110,2.88,VWS V14.01,2013-09-23 21:54:00,
2013-09-23 17:56:00,77.1,75.2,29.86,ENE,66,4.0,4.0,94,0.01,,BKN110,2.88,VWS V14.01,2013-09-23 21:56:00,
2013-09-23 17:57:00,77.1,75.2,29.86,ESE,105,3.0,4.0,94,0.01,,BKN110,2.88,VWS V14.01,2013-09-23 21:57:00,
2013-09-23 17:59:00,77.1,75.2,29.86,East,98,3.0,6.0,94,0.01,,BKN110,2.88,VWS V14.01,2013-09-23 21:59:00,
2013-09-23 18:01:00,77.1,75.2,29.86,East,91,1.0,3.0,94,0.02,,RA,2.89,VWS V14.01,2013-09-23 22:01:00,
2013-09-23 18:02:00,77.1,75.2,29.86,East,96,5.0,6.0,94,0.02,,RA,2.89,VWS V14.01,2013-09-23 22:02:00,
2013-09-23 18:04:00,77.0,75.5,29.86,East,94,6.0,6.0,95,0.03,,RA,2.90,VWS V14.01,2013-09-23 22:04:00,
2013-09-23 18:06:00,77.0,75.5,29.86,NE,56,2.0,4.0,95,0.03,,RA,2.90,VWS V14.01,2013-09-23 22:06:00,
2013-09-23 18:07:00,77.0,75.5,29.86,ENE,78,4.0,7.0,95,0.04,,RA,2.91,VWS V14.01,2013-09-23 22:07:00,
2013-09-23 18:08:00,77.0,75.5,29.86,SE,124,5.0,7.0,95,0.04,,RA,2.91,VWS V14.01,2013-09-23 22:08:00,
2013-09-23 18:09:00,77.0,75.5,29.86,East,84,3.0,7.0,95,0.05,,RA,2.92,VWS V14.01,2013-09-23 22:09:00,
2013-09-23 18:10:00,77.0,75.5,29.86,East,86,3.0,7.0,95,0.05,,RA,2.92,VWS V14.01,2013-09-23 22:10:00,
2013-09-23 18:11:00,77.0,75.5,29.86,ESE,112,6.0,6.0,95,0.05,,RA,2.92,VWS V14.01,2013-09-23 22:11:00,
2013-09-23 18:12:00,76.9,75.4,29.86,ESE,112,6.0,6.0,95,0.06,,RA,2.93,VWS V14.01,2013-09-23 22:12:00,
2013-09-23 18:13:00,76.9,75.4,29.86,SE,143,2.0,6.0,95,0.06,,RA,2.93,VWS V14.01,2013-09-23 22:13:00,
2013-09-23 18:14:00,76.9,75.4,29.86,ENE,65,2.0,6.0,95,0.06,,RA,2.93,VWS V14.01,2013-09-23 22:14:00,
2013-09-23 18:16:00,76.8,75.3,29.86,SE,136,2.0,3.0,95,0.07,, +RA,2.94,VWS V14.01,2013-09-23 22:16:00,
2013-09-23 18:17:00,76.8,75.3,29.86,SSE,167,2.0,4.0,95,0.07,, +RA,2.94,VWS V14.01,2013-09-23 22:17:00,
2013-09-23 18:18:00,76.8,75.3,29.86,South,181,1.0,4.0,95,0.08,, +RA,2.95,VWS V14.01,2013-09-23 22:18:00,
2013-09-23 18:19:00,76.7,75.2,29.86,East,90,3.0,4.0,95,0.08,, +RA,2.95,VWS V14.01,2013-09-23 22:19:00,
2013-09-23 18:21:00,76.7,75.2,29.87,SE,137,3.0,7.0,95,0.08,, +RA,2.95,VWS V14.01,2013-09-23 22:21:00,
2013-09-23 18:22:00,76.7,75.2,29.87,ENE,77,4.0,7.0,95,0.09,, +RA,2.96,VWS V14.01,2013-09-23 22:22:00,
2013-09-23 18:23:00,76.7,75.2,29.87,East,79,5.0,8.0,95,0.09,, +RA,2.96,VWS V14.01,2013-09-23 22:23:00,
2013-09-23 18:25:00,76.6,75.1,29.87,SE,125,2.0,8.0,95,0.10,, +RA,2.97,VWS V14.01,2013-09-23 22:25:00,
2013-09-23 18:26:00,76.6,75.1,29.87,SSE,148,2.0,2.0,95,0.11,, +RA,2.98,VWS V14.01,2013-09-23 22:26:00,
2013-09-23 18:27:00,76.6,75.1,29.87,SSE,153,0.0,2.0,95,0.11,, +RA,2.98,VWS V14.01,2013-09-23 22:27:00,
2013-09-23 18:28:00,76.6,75.1,29.88,SE,132,2.0,2.0,95,0.11,, +RA,2.98,VWS V14.01,2013-09-23 22:28:00,
2013-09-23 18:30:00,76.6,75.1,29.88,East,84,3.0,4.0,95,0.12,, +RA,2.99,VWS V14.01,2013-09-23 22:30:00,
2013-09-23 18:31:00,76.6,75.1,29.88,East,100,3.0,5.0,95,0.13,, +RA,3.00,VWS V14.01,2013-09-23 22:31:00,
2013-09-23 18:32:00,76.5,75.0,29.88,ESE,113,5.0,6.0,95,0.13,, +RA,3.00,VWS V14.01,2013-09-23 22:32:00,
2013-09-23 18:33:00,76.5,75.0,29.88,SSE,149,5.0,6.0,95,0.14,, +RA,3.01,VWS V14.01,2013-09-23 22:33:00,
2013-09-23 18:35:00,76.5,75.0,29.88,SE,134,2.0,6.0,95,0.15,, +RA,3.02,VWS V14.01,2013-09-23 22:35:00,
2013-09-23 18:36:00,76.5,75.0,29.88,SE,139,1.0,3.0,95,0.16,, +RA,3.03,VWS V14.01,2013-09-23 22:36:00,
2013-09-23 18:38:00,76.5,75.0,29.88,ENE,74,1.0,3.0,95,0.16,, +RA,3.03,VWS V14.01,2013-09-23 22:38:00,
2013-09-23 18:41:00,76.5,75.0,29.88,ENE,62,3.0,4.0,95,0.17,,RA,3.04,VWS V14.01,2013-09-23 22:41:00,
2013-09-23 18:42:00,76.5,75.0,29.88,SSE,153,1.0,2.0,95,0.18,,RA,3.05,VWS V14.01,2013-09-23 22:42:00,
2013-09-23 18:43:00,76.5,75.0,29.88,SSE,152,1.0,3.0,95,0.18,,RA,3.05,VWS V14.01,2013-09-23 22:43:00,
2013-09-23 18:46:00,76.4,74.9,29.88,ESE,118,2.0,10.0,95,0.20,, +RA,3.07,VWS V14.01,2013-09-23 22:46:00,
2013-09-23 18:47:00,76.4,74.9,29.88,ESE,103,2.0,3.0,95,0.20,, +RA,3.07,VWS V14.01,2013-09-23 22:47:00,
2013-09-23 18:48:00,76.4,74.9,29.88,ESE,103,1.0,3.0,95,0.20,, +RA,3.07,VWS V14.01,2013-09-23 22:48:00,
2013-09-23 18:51:00,76.3,74.8,29.88,East,88,2.0,3.0,95,0.22,, +RA,3.09,VWS V14.01,2013-09-23 22:51:00,
2013-09-23 18:52:00,76.3,74.8,29.88,East,97,1.0,3.0,95,0.23,, +RA,3.10,VWS V14.01,2013-09-23 22:52:00,
2013-09-23 18:53:00,76.3,74.8,29.88,ESE,117,1.0,3.0,95,0.23,, +RA,3.10,VWS V14.01,2013-09-23 22:53:00,
2013-09-23 18:54:00,76.3,74.8,29.88,East,95,3.0,4.0,95,0.24,, +RA,3.11,VWS V14.01,2013-09-23 22:54:00,
2013-09-23 18:56:00,76.3,74.8,29.88,ESE,106,2.0,3.0,95,0.24,,RA,3.12,VWS V14.01,2013-09-23 22:56:00,
2013-09-23 18:57:00,76.3,74.8,29.88,ESE,113,1.0,3.0,95,0.24,,RA,3.12,VWS V14.01,2013-09-23 22:57:00,
2013-09-23 18:58:00,76.3,74.8,29.88,East,101,1.0,3.0,95,0.25,,RA,3.13,VWS V14.01,2013-09-23 22:58:00,
2013-09-23 18:59:00,76.3,74.8,29.88,SE,138,2.0,4.0,95,0.25,,RA,3.13,VWS V14.01,2013-09-23 22:59:00,
2013-09-23 19:02:00,76.2,74.7,29.88,NE,56,1.0,3.0,95,0.26,,RA,3.15,VWS V14.01,2013-09-23 23:02:00,
2013-09-23 19:03:00,76.2,74.7,29.88,ESE,115,4.0,5.0,95,0.26,,RA,3.15,VWS V14.01,2013-09-23 23:03:00,
2013-09-23 19:04:00,76.2,74.7,29.88,ENE,70,3.0,5.0,95,0.27,,RA,3.16,VWS V14.01,2013-09-23 23:04:00,
2013-09-23 19:07:00,76.1,74.6,29.87,East,88,3.0,4.0,95,0.26,,RA,3.16,VWS V14.01,2013-09-23 23:07:00,
2013-09-23 19:08:00,76.1,74.6,29.87,ENE,77,3.0,4.0,95,0.27,,RA,3.17,VWS V14.01,2013-09-23 23:08:00,
2013-09-23 19:09:00,76.1,74.6,29.87,ENE,65,3.0,5.0,95,0.27,,RA,3.17,VWS V14.01,2013-09-23 23:09:00,
2013-09-23 19:12:00,76.0,74.5,29.87,ENE,78,2.0,3.0,95,0.25,,RA,3.17,VWS V14.01,2013-09-23 23:12:00,
2013-09-23 19:13:00,75.9,74.4,29.87,ENE,75,1.0,3.0,95,0.26,,RA,3.18,VWS V14.01,2013-09-23 23:13:00,
2013-09-23 19:15:00,75.9,74.4,29.87,East,79,3.0,3.0,95,0.26,,RA,3.18,VWS V14.01,2013-09-23 23:15:00,
2013-09-23 19:17:00,75.9,74.4,29.87,East,80,2.0,3.0,95,0.24,,RA,3.18,VWS V14.01,2013-09-23 23:17:00,
2013-09-23 19:18:00,75.9,74.4,29.87,East,81,2.0,3.0,95,0.24,,RA,3.18,VWS V14.01,2013-09-23 23:18:00,
2013-09-23 19:19:00,75.8,74.3,29.87,ESE,103,2.0,3.0,95,0.24,,RA,3.18,VWS V14.01,2013-09-23 23:19:00,
2013-09-23 19:20:00,75.8,74.3,29.87,ESE,105,0.0,3.0,95,0.24,,RA,3.18,VWS V14.01,2013-09-23 23:20:00,
2013-09-23 19:22:00,75.8,74.3,29.87,ESE,108,1.0,1.0,95,0.23,,RA,3.18,VWS V14.01,2013-09-23 23:22:00,
2013-09-23 19:23:00,75.8,74.3,29.87,ESE,104,2.0,2.0,95,0.23,,RA,3.18,VWS V14.01,2013-09-23 23:23:00,
2013-09-23 19:24:00,75.8,74.3,29.87,ESE,110,1.0,2.0,95,0.24,,RA,3.19,VWS V14.01,2013-09-23 23:24:00,
2013-09-23 19:25:00,75.8,74.3,29.87,ESE,111,2.0,2.0,95,0.24,,RA,3.19,VWS V14.01,2013-09-23 23:25:00,
2013-09-23 19:28:00,75.8,74.3,29.87,ESE,105,2.0,4.0,95,0.22,,RA,3.19,VWS V14.01,2013-09-23 23:28:00,
2013-09-23 19:29:00,75.7,74.2,29.87,East,88,2.0,4.0,95,0.23,,RA,3.20,VWS V14.01,2013-09-23 23:29:00,
2013-09-23 19:30:00,75.7,74.2,29.87,East,97,1.0,4.0,95,0.23,,RA,3.20,VWS V14.01,2013-09-23 23:30:00,
2013-09-23 19:33:00,75.7,74.2,29.87,East,82,2.0,4.0,95,0.22,,RA,3.21,VWS V14.01,2013-09-23 23:33:00,
2013-09-23 19:34:00,75.6,74.1,29.87,ESE,108,1.0,4.0,95,0.22,,RA,3.21,VWS V14.01,2013-09-23 23:34:00,
2013-09-23 19:35:00,75.6,74.1,29.87,ESE,115,1.0,4.0,95,0.22,,RA,3.21,VWS V14.01,2013-09-23 23:35:00,
2013-09-23 19:38:00,75.6,74.1,29.87,ESE,105,0.0,4.0,95,0.20,,RA,3.22,VWS V14.01,2013-09-23 23:38:00,
2013-09-23 19:39:00,75.6,74.1,29.87,SE,127,1.0,4.0,95,0.20,,RA,3.22,VWS V14.01,2013-09-23 23:39:00,
2013-09-23 19:40:00,75.6,74.1,29.87,ESE,111,3.0,4.0,95,0.21,,RA,3.23,VWS V14.01,2013-09-23 23:40:00,
2013-09-23 19:43:00,75.5,74.0,29.87,ENE,72,3.0,4.0,95,0.19,,RA,3.23,VWS V14.01,2013-09-23 23:43:00,
2013-09-23 19:44:00,75.5,74.0,29.87,East,93,2.0,4.0,95,0.19,,RA,3.23,VWS V14.01,2013-09-23 23:44:00,
2013-09-23 19:45:00,75.5,74.0,29.87,East,101,2.0,4.0,95,0.20,,RA,3.24,VWS V14.01,2013-09-23 23:45:00,
2013-09-23 19:46:00,75.5,74.0,29.87,SE,129,1.0,2.0,95,0.17,,RA,3.24,VWS V14.01,2013-09-23 23:46:00,
2013-09-23 19:48:00,75.5,74.0,29.87,ESE,110,3.0,3.0,95,0.17,,RA,3.24,VWS V14.01,2013-09-23 23:48:00,
2013-09-23 19:49:00,75.5,74.0,29.87,East,100,3.0,4.0,95,0.17,,RA,3.24,VWS V14.01,2013-09-23 23:49:00,
2013-09-23 19:50:00,75.5,74.0,29.87,East,94,1.0,4.0,95,0.18,,RA,3.25,VWS V14.01,2013-09-23 23:50:00,
2013-09-23 19:51:00,75.5,74.0,29.87,ESE,108,2.0,3.0,95,0.16,,RA,3.25,VWS V14.01,2013-09-23 23:51:00,
2013-09-23 19:53:00,75.5,74.0,29.87,East,91,2.0,3.0,95,0.17,,RA,3.26,VWS V14.01,2013-09-23 23:53:00,
2013-09-23 19:55:00,75.5,74.0,29.87,East,84,1.0,3.0,95,0.17,,RA,3.26,VWS V14.01,2013-09-23 23:55:00,
2013-09-23 19:57:00,75.5,74.0,29.87,East,87,4.0,4.0,95,0.15,,RA,3.27,VWS V14.01,2013-09-23 23:57:00,
2013-09-23 19:59:00,75.5,74.0,29.87,ESE,113,2.0,4.0,95,0.16,,RA,3.28,VWS V14.01,2013-09-23 23:59:00,
2013-09-23 20:00:00,75.5,74.0,29.87,East,96,1.0,4.0,95,0.16,,RA,3.28,VWS V14.01,2013-09-24 00:00:00,
2013-09-23 20:01:00,75.5,74.0,29.87,East,97,3.0,4.0,95,0.16,,-RA,3.28,VWS V14.01,2013-09-24 00:01:00,
2013-09-23 20:02:00,75.5,74.0,29.87,ESE,104,2.0,4.0,95,0.15,,-RA,3.29,VWS V14.01,2013-09-24 00:02:00,
2013-09-23 20:04:00,75.5,74.0,29.87,East,98,0.0,4.0,95,0.16,,-RA,3.30,VWS V14.01,2013-09-24 00:04:00,
2013-09-23 20:05:00,75.5,74.0,29.87,SE,131,0.0,4.0,95,0.16,,-RA,3.30,VWS V14.01,2013-09-24 00:05:00,
2013-09-23 20:06:00,75.5,74.0,29.87,ESE,105,2.0,4.0,95,0.16,,-RA,3.30,VWS V14.01,2013-09-24 00:06:00,
2013-09-23 20:07:00,75.5,74.0,29.87,East,96,2.0,3.0,95,0.15,,-RA,3.31,VWS V14.01,2013-09-24 00:07:00,
2013-09-23 20:09:00,75.5,74.0,29.87,ESE,113,2.0,3.0,95,0.16,,-RA,3.32,VWS V14.01,2013-09-24 00:09:00,
2013-09-23 20:11:00,75.5,74.0,29.87,SE,134,1.0,4.0,95,0.16,,-RA,3.32,VWS V14.01,2013-09-24 00:11:00,
2013-09-23 20:12:00,75.5,74.3,29.87,SE,124,2.0,3.0,96,0.15,,-RA,3.32,VWS V14.01,2013-09-24 00:12:00,
2013-09-23 20:14:00,75.5,74.3,29.86,ESE,103,1.0,3.0,96,0.16,,-RA,3.33,VWS V14.01,2013-09-24 00:14:00,
2013-09-23 20:16:00,75.6,74.4,29.86,ESE,106,2.0,3.0,96,0.16,,-RA,3.33,VWS V14.01,2013-09-24 00:16:00,
2013-09-23 20:17:00,75.6,74.4,29.86,ESE,121,1.0,3.0,96,0.16,,-RA,3.34,VWS V14.01,2013-09-24 00:17:00,
2013-09-23 20:19:00,75.6,74.4,29.87,East,82,1.0,5.0,96,0.16,,-RA,3.34,VWS V14.01,2013-09-24 00:19:00,
2013-09-23 20:21:00,75.6,74.4,29.87,ESE,108,1.0,5.0,96,0.16,,-RA,3.34,VWS V14.01,2013-09-24 00:21:00,
2013-09-23 20:22:00,75.6,74.4,29.87,East,86,2.0,4.0,96,0.17,,-RA,3.35,VWS V14.01,2013-09-24 00:22:00,
2013-09-23 20:24:00,75.6,74.4,29.87,SE,128,1.0,4.0,96,0.17,,-RA,3.35,VWS V14.01,2013-09-24 00:24:00,
2013-09-23 20:26:00,75.7,74.5,29.87,ESE,113,4.0,4.0,96,0.16,,-RA,3.35,VWS V14.01,2013-09-24 00:26:00,
2013-09-23 20:28:00,75.7,74.5,29.87,ESE,105,1.0,1.0,96,0.17,,-RA,3.36,VWS V14.01,2013-09-24 00:28:00,
2013-09-23 20:29:00,75.7,74.5,29.87,SE,124,3.0,3.0,96,0.17,,-RA,3.36,VWS V14.01,2013-09-24 00:29:00,
2013-09-23 20:31:00,75.6,74.4,29.87,ENE,64,1.0,2.0,96,0.16,,-RA,3.36,VWS V14.01,2013-09-24 00:31:00,
2013-09-23 20:33:00,75.6,74.4,29.87,ESE,121,3.0,4.0,96,0.16,,-RA,3.36,VWS V14.01,2013-09-24 00:33:00,
2013-09-23 20:34:00,75.6,74.4,29.87,ESE,108,2.0,4.0,96,0.16,,-RA,3.36,VWS V14.01,2013-09-24 00:34:00,
2013-09-23 20:36:00,75.6,74.4,29.87,ESE,106,3.0,5.0,96,0.15,,-RA,3.37,VWS V14.01,2013-09-24 00:36:00,
2013-09-23 20:38:00,75.6,74.4,29.87,ESE,117,5.0,6.0,96,0.15,,-RA,3.37,VWS V14.01,2013-09-24 00:38:00,
2013-09-23 20:39:00,75.6,74.4,29.87,ESE,121,4.0,6.0,96,0.15,,-RA,3.37,VWS V14.01,2013-09-24 00:39:00,
2013-09-23 20:41:00,75.6,74.4,29.87,ESE,105,2.0,3.0,96,0.14,,-RA,3.37,VWS V14.01,2013-09-24 00:41:00,
2013-09-23 20:44:00,75.6,74.4,29.88,SE,128,2.0,6.0,96,0.14,,-RA,3.37,VWS V14.01,2013-09-24 00:44:00,
2013-09-23 20:46:00,75.6,74.4,29.88,ESE,113,2.0,3.0,96,0.13,,-RA,3.37,VWS V14.01,2013-09-24 00:46:00,
2013-09-23 20:49:00,75.6,74.4,29.88,ESE,111,3.0,5.0,96,0.13,,-RA,3.37,VWS V14.01,2013-09-24 00:49:00,
2013-09-23 20:50:00,75.6,74.4,29.88,ESE,108,6.0,6.0,96,0.13,,-RA,3.37,VWS V14.01,2013-09-24 00:50:00,
2013-09-23 20:51:00,75.6,74.4,29.88,SE,124,3.0,4.0,96,0.12,,-RA,3.37,VWS V14.01,2013-09-24 00:51:00,
2013-09-23 20:54:00,75.5,74.3,29.88,SSE,149,4.0,5.0,96,0.13,,-RA,3.38,VWS V14.01,2013-09-24 00:54:00,
2013-09-23 20:55:00,75.6,74.4,29.88,East,101,2.0,5.0,96,0.13,,-RA,3.38,VWS V14.01,2013-09-24 00:55:00,
2013-09-23 20:56:00,75.6,74.4,29.89,SE,136,2.0,5.0,96,0.11,,-RA,3.38,VWS V14.01,2013-09-24 00:56:00,
2013-09-23 20:57:00,75.6,74.4,29.89,ESE,113,2.0,5.0,96,0.12,,-RA,3.39,VWS V14.01,2013-09-24 00:57:00,
2013-09-23 20:59:00,75.6,74.4,29.89,SSE,149,1.0,5.0,96,0.12,,-RA,3.39,VWS V14.01,2013-09-24 00:59:00,
2013-09-23 21:00:00,75.6,74.4,29.89,ESE,120,1.0,5.0,96,0.12,,-RA,3.39,VWS V14.01,2013-09-24 01:00:00,
2013-09-23 21:01:00,75.5,74.3,29.89,SE,128,3.0,3.0,96,0.11,,BKN070,3.39,VWS V14.01,2013-09-24 01:01:00,
2013-09-23 21:02:00,75.5,74.3,29.89,SSE,149,3.0,3.0,96,0.11,,BKN070,3.39,VWS V14.01,2013-09-24 01:02:00,
2013-09-23 21:04:00,75.6,74.4,29.89,South,177,1.0,3.0,96,0.11,,BKN070,3.39,VWS V14.01,2013-09-24 01:04:00,
2013-09-23 21:05:00,75.5,74.3,29.89,South,178,0.0,3.0,96,0.11,,BKN070,3.39,VWS V14.01,2013-09-24 01:05:00,
2013-09-23 21:07:00,75.6,74.4,29.89,ESE,111,3.0,3.0,96,0.09,,BKN070,3.39,VWS V14.01,2013-09-24 01:07:00,
2013-09-23 21:09:00,75.6,74.4,29.89,East,97,1.0,5.0,96,0.10,,BKN070,3.40,VWS V14.01,2013-09-24 01:09:00,
2013-09-23 21:10:00,75.6,74.4,29.89,ESE,108,0.0,5.0,96,0.10,,BKN070,3.40,VWS V14.01,2013-09-24 01:10:00,
2013-09-23 21:12:00,75.6,74.4,29.89,SE,128,4.0,6.0,96,0.08,,BKN070,3.40,VWS V14.01,2013-09-24 01:12:00,
2013-09-23 21:14:00,75.5,74.3,29.89,East,98,4.0,6.0,96,0.08,,BKN070,3.40,VWS V14.01,2013-09-24 01:14:00,
2013-09-23 21:15:00,75.5,74.3,29.89,East,85,2.0,6.0,96,0.08,,BKN070,3.40,VWS V14.01,2013-09-24 01:15:00,
2013-09-23 21:17:00,75.5,74.3,29.89,ESE,108,4.0,5.0,96,0.07,,BKN070,3.40,VWS V14.01,2013-09-24 01:17:00,
2013-09-23 21:20:00,75.5,74.3,29.89,ESE,115,2.0,5.0,96,0.07,,BKN070,3.40,VWS V14.01,2013-09-24 01:20:00,
2013-09-23 21:21:00,75.5,74.3,29.89,SE,134,1.0,5.0,96,0.07,,BKN070,3.40,VWS V14.01,2013-09-24 01:21:00,
2013-09-23 21:22:00,75.5,74.3,29.89,East,101,3.0,3.0,96,0.06,,BKN070,3.40,VWS V14.01,2013-09-24 01:22:00,
2013-09-23 21:25:00,75.5,74.3,29.89,ESE,105,1.0,6.0,96,0.06,,BKN070,3.40,VWS V14.01,2013-09-24 01:25:00,
2013-09-23 21:26:00,75.5,74.3,29.89,East,84,1.0,2.0,96,0.05,,BKN070,3.40,VWS V14.01,2013-09-24 01:26:00,
2013-09-23 21:27:00,75.5,74.3,29.89,ESE,105,5.0,5.0,96,0.05,,BKN070,3.40,VWS V14.01,2013-09-24 01:27:00,
2013-09-23 21:30:00,75.5,74.3,29.89,SSE,147,2.0,6.0,96,0.05,,BKN070,3.40,VWS V14.01,2013-09-24 01:30:00,
2013-09-23 21:31:00,75.5,74.3,29.90,SE,139,2.0,2.0,96,0.04,,BKN070,3.40,VWS V14.01,2013-09-24 01:31:00,
2013-09-23 21:32:00,75.5,74.3,29.90,ESE,110,3.0,3.0,96,0.04,,BKN070,3.40,VWS V14.01,2013-09-24 01:32:00,
2013-09-23 21:33:00,75.5,74.3,29.90,SE,134,0.0,3.0,96,0.04,,BKN070,3.40,VWS V14.01,2013-09-24 01:33:00,
2013-09-23 21:35:00,75.5,74.3,29.90,ESE,108,4.0,4.0,96,0.04,,BKN070,3.40,VWS V14.01,2013-09-24 01:35:00,
2013-09-23 21:37:00,75.5,74.3,29.90,ESE,121,1.0,2.0,96,0.03,,BKN070,3.40,VWS V14.01,2013-09-24 01:37:00,
2013-09-23 21:38:00,75.5,74.3,29.90,East,100,4.0,5.0,96,0.03,,BKN070,3.40,VWS V14.01,2013-09-24 01:38:00,
2013-09-23 21:40:00,75.6,74.4,29.90,SSE,149,2.0,5.0,96,0.03,,BKN070,3.40,VWS V14.01,2013-09-24 01:40:00,
2013-09-23 21:42:00,75.6,74.4,29.90,SE,146,2.0,2.0,96,0.03,,BKN070,3.40,VWS V14.01,2013-09-24 01:42:00,
2013-09-23 21:43:00,75.6,74.4,29.90,SE,132,1.0,2.0,96,0.03,,BKN070,3.40,VWS V14.01,2013-09-24 01:43:00,
2013-09-23 21:44:00,75.6,74.4,29.90,SE,146,2.0,2.0,96,0.03,,BKN070,3.40,VWS V14.01,2013-09-24 01:44:00,
2013-09-23 21:45:00,75.6,74.4,29.91,SSE,150,1.0,3.0,96,0.03,,BKN070,3.40,VWS V14.01,2013-09-24 01:45:00,
2013-09-23 21:47:00,75.6,74.4,29.91,SE,146,1.0,2.0,96,0.03,,BKN070,3.40,VWS V14.01,2013-09-24 01:47:00,
2013-09-23 21:48:00,75.6,74.4,29.91,ESE,111,1.0,2.0,96,0.03,,BKN070,3.40,VWS V14.01,2013-09-24 01:48:00,
2013-09-23 21:49:00,75.6,74.4,29.91,SE,138,1.0,2.0,96,0.03,,BKN070,3.40,VWS V14.01,2013-09-24 01:49:00,
2013-09-23 21:50:00,75.6,74.4,29.91,SSE,148,2.0,4.0,96,0.03,,BKN070,3.40,VWS V14.01,2013-09-24 01:50:00,
2013-09-23 21:52:00,75.6,74.4,29.91,SE,142,1.0,2.0,96,0.03,,BKN070,3.40,VWS V14.01,2013-09-24 01:52:00,
2013-09-23 21:53:00,75.6,74.4,29.91,SSE,148,3.0,3.0,96,0.03,,BKN070,3.40,VWS V14.01,2013-09-24 01:53:00,
2013-09-23 21:54:00,75.6,74.4,29.91,SE,135,3.0,5.0,96,0.03,,BKN070,3.40,VWS V14.01,2013-09-24 01:54:00,
2013-09-23 21:55:00,75.6,74.4,29.91,SE,146,3.0,5.0,96,0.03,,BKN070,3.40,VWS V14.01,2013-09-24 01:55:00,
2013-09-23 21:57:00,75.6,74.4,29.91,SE,132,1.0,4.0,96,0.02,,BKN070,3.40,VWS V14.01,2013-09-24 01:57:00,
2013-09-23 21:58:00,75.6,74.4,29.91,ESE,114,2.0,4.0,96,0.02,,BKN070,3.40,VWS V14.01,2013-09-24 01:58:00,
2013-09-23 22:00:00,75.6,74.4,29.91,SE,133,1.0,4.0,96,0.03,,-RA,3.41,VWS V14.01,2013-09-24 02:00:00,
2013-09-23 22:01:00,75.6,74.4,29.91,ESE,115,3.0,4.0,96,0.02,,-RA,3.41,VWS V14.01,2013-09-24 02:01:00,
2013-09-23 22:03:00,75.6,74.4,29.91,ESE,106,3.0,4.0,96,0.03,,-RA,3.42,VWS V14.01,2013-09-24 02:03:00,
2013-09-23 22:05:00,75.5,74.3,29.91,ESE,114,1.0,4.0,96,0.04,,-RA,3.43,VWS V14.01,2013-09-24 02:05:00,
2013-09-23 22:06:00,75.5,74.3,29.91,ESE,114,0.0,0.0,96,0.04,,-RA,3.43,VWS V14.01,2013-09-24 02:06:00,
2013-09-23 22:08:00,75.5,74.3,29.91,ESE,111,0.0,1.0,96,0.04,,-RA,3.43,VWS V14.01,2013-09-24 02:08:00,
2013-09-23 22:09:00,75.5,74.3,29.91,SE,140,1.0,3.0,96,0.05,,-RA,3.44,VWS V14.01,2013-09-24 02:09:00,
2013-09-23 22:10:00,75.5,74.3,29.91,SSE,150,2.0,3.0,96,0.05,,-RA,3.44,VWS V14.01,2013-09-24 02:10:00,
2013-09-23 22:11:00,75.5,74.3,29.91,SE,124,1.0,1.0,96,0.04,,-RA,3.44,VWS V14.01,2013-09-24 02:11:00,
2013-09-23 22:13:00,75.5,74.3,29.91,SE,134,1.0,1.0,96,0.05,,-RA,3.45,VWS V14.01,2013-09-24 02:13:00,
2013-09-23 22:14:00,75.5,74.3,29.91,SE,134,0.0,1.0,96,0.05,,-RA,3.45,VWS V14.01,2013-09-24 02:14:00,
2013-09-23 22:15:00,75.5,74.3,29.91,SE,124,1.0,1.0,96,0.05,,-RA,3.45,VWS V14.01,2013-09-24 02:15:00,
2013-09-23 22:16:00,75.5,74.3,29.91,SSE,163,2.0,2.0,96,0.05,,-RA,3.45,VWS V14.01,2013-09-24 02:16:00,
2013-09-23 22:18:00,75.4,74.2,29.91,SE,131,0.0,3.0,96,0.06,,-RA,3.46,VWS V14.01,2013-09-24 02:18:00,
2013-09-23 22:19:00,75.5,74.3,29.91,SE,131,0.0,3.0,96,0.06,,-RA,3.46,VWS V14.01,2013-09-24 02:19:00,
2013-09-23 22:20:00,75.4,74.2,29.91,SE,131,0.0,3.0,96,0.06,,-RA,3.46,VWS V14.01,2013-09-24 02:20:00,
2013-09-23 22:21:00,75.5,74.3,29.91,SE,131,0.0,0.0,96,0.06,,-RA,3.46,VWS V14.01,2013-09-24 02:21:00,
2013-09-23 22:24:00,75.4,74.2,29.91,SE,125,1.0,3.0,96,0.08,,-RA,3.48,VWS V14.01,2013-09-24 02:24:00,
2013-09-23 22:25:00,75.4,74.2,29.91,SE,130,3.0,3.0,96,0.11,,-RA,3.51,VWS V14.01,2013-09-24 02:25:00,
2013-09-23 22:26:00,75.4,74.2,29.91,SE,135,1.0,2.0,96,0.11,,-RA,3.51,VWS V14.01,2013-09-24 02:26:00,
2013-09-23 22:29:00,75.4,74.2,29.91,East,80,2.0,2.0,96,0.17,,-RA,3.57,VWS V14.01,2013-09-24 02:29:00,
2013-09-23 22:30:00,75.4,74.2,29.91,ESE,113,1.0,3.0,96,0.18,,-RA,3.58,VWS V14.01,2013-09-24 02:30:00,
2013-09-23 22:31:00,75.4,74.2,29.91,ESE,118,1.0,1.0,96,0.19,,-RA,3.59,VWS V14.01,2013-09-24 02:31:00,
2013-09-23 22:32:00,75.4,74.2,29.91,SE,132,2.0,3.0,96,0.19,,-RA,3.59,VWS V14.01,2013-09-24 02:32:00,
2013-09-23 22:34:00,75.3,74.1,29.91,SSE,152,0.0,3.0,96,0.20,,-RA,3.60,VWS V14.01,2013-09-24 02:34:00,
2013-09-23 22:35:00,75.3,74.1,29.91,ESE,106,2.0,3.0,96,0.20,,-RA,3.60,VWS V14.01,2013-09-24 02:35:00,
2013-09-23 22:36:00,75.3,74.1,29.91,ESE,105,1.0,1.0,96,0.21,,-RA,3.61,VWS V14.01,2013-09-24 02:36:00,
2013-09-23 22:37:00,75.3,74.1,29.91,East,86,0.0,2.0,96,0.21,,-RA,3.61,VWS V14.01,2013-09-24 02:37:00,
2013-09-23 22:39:00,75.3,74.1,29.91,ESE,110,1.0,3.0,96,0.24,,-RA,3.64,VWS V14.01,2013-09-24 02:39:00,
2013-09-23 22:40:00,75.3,74.1,29.91,East,101,1.0,3.0,96,0.24,,-RA,3.64,VWS V14.01,2013-09-24 02:40:00,
2013-09-23 22:41:00,75.3,74.1,29.91,ESE,107,2.0,3.0,96,0.25,, +RA,3.65,VWS V14.01,2013-09-24 02:41:00,
2013-09-23 22:42:00,75.2,74.0,29.91,East,82,2.0,3.0,96,0.28,, +RA,3.68,VWS V14.01,2013-09-24 02:42:00,
2013-09-23 22:44:00,75.2,74.0,29.91,East,82,5.0,5.0,96,0.31,, +RA,3.71,VWS V14.01,2013-09-24 02:44:00,
2013-09-23 22:45:00,75.2,74.0,29.91,ENE,68,3.0,6.0,96,0.32,, +RA,3.72,VWS V14.01,2013-09-24 02:45:00,
2013-09-23 22:46:00,75.2,74.0,29.91,ENE,68,3.0,6.0,96,0.32,, +RA,3.72,VWS V14.01,2013-09-24 02:46:00,
2013-09-23 22:47:00,75.2,74.0,29.91,ENE,58,3.0,6.0,96,0.32,, +RA,3.72,VWS V14.01,2013-09-24 02:47:00,
2013-09-23 22:49:00,75.2,74.0,29.90,ENE,69,5.0,6.0,96,0.32,, +RA,3.72,VWS V14.01,2013-09-24 02:49:00,
2013-09-23 22:50:00,75.2,74.0,29.90,ENE,73,4.0,6.0,96,0.32,, +RA,3.72,VWS V14.01,2013-09-24 02:50:00,
2013-09-23 22:51:00,75.2,74.0,29.90,East,86,4.0,6.0,96,0.32,, +RA,3.72,VWS V14.01,2013-09-24 02:51:00,
2013-09-23 22:52:00,75.2,74.0,29.90,East,85,3.0,5.0,96,0.32,, +RA,3.72,VWS V14.01,2013-09-24 02:52:00,
2013-09-23 22:55:00,75.2,74.0,29.90,ENE,66,3.0,6.0,96,0.33,, +RA,3.73,VWS V14.01,2013-09-24 02:55:00,
2013-09-23 22:56:00,75.2,74.0,29.90,ENE,77,5.0,7.0,96,0.33,,-RA,3.73,VWS V14.01,2013-09-24 02:56:00,
2013-09-23 22:57:00,75.2,74.0,29.90,East,81,8.0,8.0,96,0.33,,-RA,3.73,VWS V14.01,2013-09-24 02:57:00,
2013-09-23 23:00:00,75.1,73.9,29.90,East,90,4.0,9.0,96,0.33,,-RA,3.73,VWS V14.01,2013-09-24 03:00:00,
2013-09-23 23:01:00,75.0,73.8,29.89,ENE,68,6.0,9.0,96,0.33,,-RA,3.74,VWS V14.01,2013-09-24 03:01:00,
2013-09-23 23:02:00,75.0,73.8,29.89,ENE,65,4.0,9.0,96,0.33,,-RA,3.74,VWS V14.01,2013-09-24 03:02:00,
2013-09-23 23:05:00,74.9,73.7,29.89,NE,51,2.0,9.0,96,0.33,,-RA,3.74,VWS V14.01,2013-09-24 03:05:00,
2013-09-23 23:06:00,74.9,73.7,29.89,ENE,68,4.0,4.0,96,0.31,,-RA,3.74,VWS V14.01,2013-09-24 03:06:00,
2013-09-23 23:07:00,74.9,73.7,29.89,NE,55,3.0,6.0,96,0.31,,-RA,3.74,VWS V14.01,2013-09-24 03:07:00,
2013-09-23 23:10:00,74.9,73.7,29.89,ESE,103,4.0,9.0,96,0.31,,-RA,3.74,VWS V14.01,2013-09-24 03:10:00,
2013-09-23 23:11:00,74.9,73.7,29.89,East,79,4.0,4.0,96,0.30,,-RA,3.74,VWS V14.01,2013-09-24 03:11:00,
2013-09-23 23:12:00,74.9,73.7,29.89,ESE,114,2.0,4.0,96,0.30,,-RA,3.74,VWS V14.01,2013-09-24 03:12:00,
2013-09-23 23:15:00,74.9,73.7,29.89,ENE,70,6.0,6.0,96,0.30,,-RA,3.74,VWS V14.01,2013-09-24 03:15:00,
2013-09-23 23:16:00,74.9,73.7,29.89,East,89,6.0,7.0,96,0.29,,-RA,3.74,VWS V14.01,2013-09-24 03:16:00,
2013-09-23 23:17:00,74.9,73.7,29.89,ESE,105,7.0,8.0,96,0.29,,-RA,3.74,VWS V14.01,2013-09-24 03:17:00,
2013-09-23 23:20:00,74.9,73.7,29.89,SE,127,5.0,8.0,96,0.29,,-RA,3.74,VWS V14.01,2013-09-24 03:20:00,
2013-09-23 23:21:00,74.9,73.7,29.89,ESE,111,3.0,6.0,96,0.28,,-RA,3.74,VWS V14.01,2013-09-24 03:21:00,
2013-09-23 23:22:00,74.9,73.7,29.89,SE,133,7.0,7.0,96,0.28,,-RA,3.74,VWS V14.01,2013-09-24 03:22:00,
2013-09-23 23:23:00,74.9,73.7,29.89,ENE,62,2.0,7.0,96,0.28,,-RA,3.74,VWS V14.01,2013-09-24 03:23:00,
2013-09-23 23:25:00,74.8,73.6,29.89,ENE,60,4.0,7.0,96,0.28,,-RA,3.74,VWS V14.01,2013-09-24 03:25:00,
2013-09-23 23:26:00,74.8,73.6,29.89,SE,137,2.0,5.0,96,0.23,,-RA,3.74,VWS V14.01,2013-09-24 03:26:00,
2013-09-23 23:27:00,74.8,73.6,29.89,East,91,6.0,7.0,96,0.23,,-RA,3.74,VWS V14.01,2013-09-24 03:27:00,
2013-09-23 23:28:00,74.9,73.7,29.89,ESE,122,5.0,8.0,96,0.23,,-RA,3.74,VWS V14.01,2013-09-24 03:28:00,
2013-09-23 23:30:00,74.8,73.6,29.89,ESE,114,4.0,8.0,96,0.23,,-RA,3.74,VWS V14.01,2013-09-24 03:30:00,
2013-09-23 23:31:00,74.8,73.6,29.89,ENE,68,4.0,5.0,96,0.15,,-RA,3.74,VWS V14.01,2013-09-24 03:31:00,
2013-09-23 23:32:00,74.8,73.6,29.89,East,92,4.0,5.0,96,0.15,,-RA,3.74,VWS V14.01,2013-09-24 03:32:00,
2013-09-23 23:36:00,74.8,73.6,29.90,East,88,3.0,4.0,96,0.14,,-RA,3.74,VWS V14.01,2013-09-24 03:36:00,
2013-09-23 23:37:00,74.8,73.6,29.90,ENE,57,6.0,6.0,96,0.14,,-RA,3.74,VWS V14.01,2013-09-24 03:37:00,
2013-09-23 23:41:00,74.8,73.6,29.90,SE,137,2.0,3.0,96,0.08,,-RA,3.74,VWS V14.01,2013-09-24 03:41:00,
2013-09-23 23:42:00,74.8,73.6,29.90,ESE,121,2.0,3.0,96,0.08,,-RA,3.74,VWS V14.01,2013-09-24 03:42:00,
2013-09-23 23:46:00,74.8,73.6,29.90,ESE,113,3.0,5.0,96,0.02,,-RA,3.74,VWS V14.01,2013-09-24 03:46:00,
2013-09-23 23:47:00,74.8,73.6,29.90,ESE,117,4.0,6.0,96,0.02,,-RA,3.74,VWS V14.01,2013-09-24 03:47:00,
2013-09-23 23:51:00,74.8,73.6,29.90,East,101,3.0,7.0,96,0.02,,-RA,3.74,VWS V14.01,2013-09-24 03:51:00,
2013-09-23 23:52:00,74.8,73.6,29.90,East,79,4.0,7.0,96,0.02,,-RA,3.74,VWS V14.01,2013-09-24 03:52:00,
2013-09-23 23:56:00,74.9,73.7,29.90,East,101,1.0,3.0,96,0.02,,-RA,3.75,VWS V14.01,2013-09-24 03:56:00,
2013-09-23 23:58:00,74.9,73.7,29.90,East,101,3.0,5.0,96,0.02,,-RA,3.75,VWS V14.01,2013-09-24 03:58:00,